GFSWCAN_850_spd_096.txt.gz
Wind_Speed
17 18 20 15 11 12 11 10 11 7 6 6 5 6 7 4 6 7 6 5 4 4 7 8 9 8 6 5 3 1 2 1 2 3 2 2 3 3 2 4 3 3 3 4 2 2 7 9 4 6 4 3 8 9
17 17 19 17 13 12 14 11 10 8 7 6 7 6 6 6 4 5 5 6 6 7 6 9 12 13 14 10 5 5 2 3 5 3 1 2 3 1 3 4 1 3 6 4 8 6 4 17 8 10 3 4 8 10
19 17 18 17 15 14 15 14 10 9 9 8 9 9 8 5 4 5 5 4 6 7 12 13 13 16 16 13 12 4 4 5 5 5 5 2 5 4 4 5 3 4 5 4 1 4 10 25 24 23 12 12 10 10
21 20 18 19 18 17 16 15 13 10 9 10 10 12 11 9 5 5 5 6 7 4 3 4 9 11 13 16 13 14 9 6 4 5 3 2 2 7 3 3 4 5 7 4 7 11 17 25 22 24 21 17 15 13
21 23 21 19 17 17 16 16 14 11 11 11 11 12 13 12 11 9 8 7 7 7 3 8 14 15 15 13 13 13 12 9 5 3 2 4 4 3 3 1 4 11 7 5 6 8 7 9 8 10 21 22 18 15
23 23 24 23 19 15 15 17 15 12 10 11 11 10 11 12 12 10 5 8 7 6 5 3 4 6 9 13 12 10 10 8 6 4 5 5 4 4 2 4 11 19 18 21 6 5 8 13 14 11 15 16 15 13
25 26 26 25 22 18 14 17 17 13 11 10 10 10 9 9 10 9 4 3 4 5 4 6 4 3 8 8 7 9 10 7 7 4 5 3 4 6 3 5 7 13 12 14 20 21 17 20 13 9 11 13 14 14
28 27 28 26 25 21 16 18 17 15 12 9 9 10 10 10 11 13 15 17 11 5 6 2 4 3 11 7 6 8 6 6 6 5 3 3 2 3 5 14 17 15 14 16 16 18 22 18 11 14 13 14 14 14
30 29 28 28 27 26 20 19 17 16 11 8 8 9 9 11 8 10 11 13 16 12 4 5 3 4 10 6 5 6 5 1 4 3 4 4 3 6 9 12 19 16 9 13 13 12 16 18 13 13 14 15 16 16
28 31 30 28 29 27 25 21 19 16 11 8 7 4 5 6 9 5 4 4 6 10 10 7 5 2 9 7 5 6 3 2 2 3 4 3 5 28 29 24 23 21 23 17 18 16 16 19 19 18 19 17 16 14
26 29 30 29 28 28 28 24 21 17 13 11 8 6 6 5 6 5 4 4 3 4 8 6 18 4 9 2 3 7 3 1 1 3 3 3 4 6 10 8 11 16 19 19 21 23 12 13 15 18 18 17 16 14
25 28 31 31 27 27 28 27 26 25 16 12 6 6 5 6 5 2 3 1 4 5 3 5 6 4 5 4 2 4 2 2 5 2 0 4 5 13 8 10 14 15 14 15 17 22 18 14 14 14 15 16 15 13
23 25 30 29 27 28 27 31 31 29 19 14 8 5 5 6 1 7 8 4 3 9 11 8 1 3 5 5 2 2 2 5 3 1 4 5 7 5 8 11 11 7 7 5 8 15 13 12 11 11 13 15 16 16
24 24 23 30 28 26 26 32 34 31 20 9 10 6 7 5 7 7 4 5 9 10 20 18 9 3 1 1 3 2 2 2 2 3 6 3 10 3 4 7 5 4 4 3 8 13 12 11 10 12 14 13 13 13
26 26 26 24 28 28 27 31 36 36 14 9 9 7 9 12 8 6 12 4 8 17 29 12 6 5 2 2 1 2 3 4 6 5 3 6 6 1 3 5 4 5 6 7 9 11 11 12 13 13 14 15 15 14
26 25 28 24 23 28 25 32 39 41 8 8 9 4 5 2 5 10 11 10 17 29 17 7 4 3 4 5 4 8 4 6 4 4 8 6 5 3 5 6 5 4 7 9 10 12 13 14 14 14 16 17 16 14
22 25 26 20 19 16 26 45 32 20 12 7 10 20 15 4 7 16 20 16 25 25 3 5 6 8 4 1 4 6 6 4 6 8 8 8 3 2 4 5 7 7 6 8 11 13 14 15 18 20 21 19 18 16
26 25 22 20 15 16 30 27 18 13 11 16 7 15 25 13 10 8 17 21 25 14 10 5 9 3 6 6 4 4 15 17 15 6 12 10 7 3 3 3 4 7 10 9 11 12 17 20 23 24 21 20 20 19
24 22 21 20 21 30 15 13 10 8 18 6 18 14 22 13 22 14 13 26 20 16 6 8 4 5 5 7 7 10 9 9 8 11 15 13 15 10 7 9 12 14 16 15 14 17 19 22 24 23 24 25 24 20
20 17 18 17 23 22 10 7 10 7 7 10 11 22 16 14 22 25 23 25 32 9 8 4 6 11 10 16 18 20 15 13 14 16 18 16 14 15 19 21 21 19 21 20 20 20 21 23 26 27 28 28 25 24
23 24 23 21 24 28 7 9 10 8 11 9 13 19 10 12 11 22 24 30 16 9 5 27 29 38 36 35 34 34 33 31 32 31 31 32 33 33 36 38 35 29 27 29 29 28 28 30 28 28 30 30 26 24
28 25 22 25 19 13 10 12 7 8 9 4 17 19 7 7 9 16 18 14 13 35 28 28 36 42 42 48 52 55 53 48 47 46 42 39 41 45 45 41 36 35 33 33 33 32 29 29 29 27 29 28 26 25
25 23 22 15 12 11 6 13 9 10 4 6 12 6 3 5 9 20 9 15 26 37 36 43 46 47 50 53 48 50 50 47 48 50 45 44 45 46 44 38 33 31 31 31 29 29 28 28 27 25 27 30 28 26
23 10 12 12 16 6 8 7 5 7 6 4 5 4 3 7 17 6 5 15 33 29 32 38 40 45 49 50 51 56 51 47 51 49 45 41 39 36 29 28 28 26 25 23 24 23 25 25 23 26 29 31 29 29
8 10 9 5 9 4 5 5 4 3 5 4 4 4 3 9 5 5 5 5 26 35 37 37 43 47 47 43 36 40 39 39 42 39 33 31 26 24 25 25 25 23 23 24 25 24 25 24 24 25 28 31 31 29
8 12 11 9 6 6 7 7 8 7 3 4 7 3 6 4 4 8 4 18 37 40 41 42 45 42 41 47 48 44 43 39 33 31 28 21 20 22 21 21 22 21 18 20 22 23 23 24 24 24 27 31 31 28
6 8 10 11 10 6 3 1 6 4 7 8 4 5 4 5 7 6 17 30 43 41 36 35 37 39 39 34 32 30 31 29 24 18 13 15 16 17 18 20 22 18 18 18 17 18 20 23 22 23 29 31 29 26
7 11 8 13 7 8 5 3 5 8 5 9 11 7 9 10 8 10 13 15 12 13 23 26 25 24 25 23 14 15 15 16 17 17 16 16 19 19 18 18 18 19 18 17 16 16 17 18 20 24 29 29 27 22
6 9 13 5 4 5 6 10 7 13 9 17 7 5 6 14 24 22 20 18 15 19 19 14 13 17 20 20 20 19 20 19 19 19 19 21 20 18 15 16 16 16 16 15 14 14 14 15 18 21 25 24 21 17
9 18 7 6 7 9 10 18 8 20 23 22 21 20 24 36 38 30 26 28 32 33 29 25 20 18 22 22 24 24 23 20 20 21 22 24 21 17 16 14 13 12 12 13 13 14 19 21 22 24 24 24 21 18
16 21 6 8 6 9 18 18 18 13 16 22 29 30 37 28 31 34 38 40 40 37 37 36 30 22 23 25 25 24 23 20 20 22 25 25 24 20 18 14 12 11 10 12 14 17 22 24 24 24 24 22 18 17
15 14 6 5 4 8 9 9 7 10 14 13 18 26 26 14 14 35 39 36 39 43 45 44 40 38 34 32 33 28 25 24 23 23 22 21 20 20 19 16 13 12 11 12 15 19 24 25 25 24 20 18 17 17
8 6 5 3 1 1 7 8 5 5 7 7 13 27 29 23 20 30 33 36 40 43 42 40 41 40 37 37 38 36 32 27 29 29 26 23 20 18 17 16 16 13 12 15 19 24 26 25 23 20 18 17 17 16

GFSWCAN_850_spd_099.txt.gz
Wind_Speed
18 16 13 15 15 14 14 14 11 12 8 7 6 7 8 11 11 8 7 6 5 4 8 10 8 7 6 5 3 2 3 1 2 1 2 2 3 3 1 4 4 6 5 4 2 2 7 9 6 6 5 4 6 11
20 17 15 13 16 14 15 17 13 11 10 7 8 8 6 7 10 7 7 8 9 8 8 13 12 14 14 10 4 4 3 2 1 3 0 1 3 0 3 4 1 3 6 4 8 6 4 20 8 15 6 6 8 11
23 20 16 15 13 17 16 16 17 11 11 9 8 9 9 7 7 8 7 7 8 8 13 12 12 17 19 18 14 5 3 3 1 2 4 2 5 4 4 5 2 5 5 4 1 4 9 24 26 26 18 16 9 8
24 22 20 18 15 14 17 16 17 13 10 10 10 10 11 10 9 8 9 9 9 5 4 5 5 9 10 15 15 15 13 6 4 3 3 2 2 6 3 4 4 6 9 5 6 11 22 23 23 23 24 25 23 16
22 25 22 21 18 16 16 18 13 14 11 11 11 12 11 12 11 11 11 12 11 6 4 10 21 21 16 14 15 15 13 11 6 4 3 4 4 2 3 2 5 13 7 6 7 13 11 13 8 7 10 18 20 18
20 24 25 24 20 19 18 17 17 14 11 10 11 11 12 11 11 8 5 3 5 5 6 4 5 7 7 11 13 13 12 10 7 5 5 5 6 5 2 4 12 19 21 27 7 6 11 13 12 13 14 13 14 15
24 24 25 26 22 21 20 18 16 15 14 10 10 11 11 11 10 8 4 2 3 4 4 7 5 2 4 6 6 9 11 7 7 4 6 4 6 7 3 5 5 13 17 22 21 21 20 23 19 11 10 10 12 14
23 27 27 25 24 21 21 21 18 16 14 13 11 10 12 12 12 12 15 16 14 6 5 1 4 3 8 5 4 6 4 6 6 5 3 5 4 5 6 14 19 18 15 19 22 22 23 21 17 13 12 12 13 13
21 23 26 29 26 22 20 21 20 17 14 13 11 10 10 12 8 10 12 13 12 11 4 6 3 4 9 4 4 4 4 1 3 3 4 3 2 7 11 17 22 18 12 8 8 16 18 18 18 17 15 15 14 15
19 22 24 23 26 26 20 19 21 18 15 13 9 6 6 6 8 4 4 5 8 8 10 7 6 2 9 7 4 4 2 1 1 2 2 3 5 22 31 29 24 19 13 15 19 19 17 20 17 16 17 15 14 13
20 21 21 24 23 25 24 18 22 19 18 13 8 7 6 6 5 5 5 5 6 4 9 7 21 4 10 3 3 6 3 1 1 3 2 3 4 6 10 8 7 16 14 19 22 21 16 12 11 14 16 16 15 15
22 20 21 23 23 21 22 20 23 28 25 14 4 5 6 6 5 2 3 1 4 5 7 7 8 5 5 6 4 6 3 2 5 2 1 4 5 12 8 5 7 12 15 13 14 16 14 16 9 9 11 14 15 14
23 23 21 23 24 23 20 20 24 33 27 16 9 5 5 5 0 7 9 4 3 7 12 9 3 9 6 6 1 2 4 6 5 1 4 5 9 7 5 8 9 7 6 9 10 4 8 12 10 10 10 11 13 14
24 24 24 23 22 19 19 16 27 35 24 9 10 6 6 5 6 6 5 4 7 6 19 20 7 4 5 1 3 3 3 3 1 3 7 3 7 6 2 2 2 1 2 3 3 2 6 7 9 9 10 11 13 15
25 25 24 24 23 21 19 16 33 43 17 9 9 7 9 13 7 6 14 5 8 16 26 10 5 4 2 2 3 3 1 5 7 5 4 8 11 8 4 2 2 1 1 2 3 5 9 10 11 11 11 12 14 16
23 27 28 23 21 18 19 14 40 34 18 10 9 5 7 2 5 10 13 13 11 23 16 3 3 2 5 3 4 8 5 7 4 4 11 10 13 9 5 3 2 3 4 3 4 5 8 11 12 13 14 16 18 19
21 29 24 20 16 15 17 24 32 16 12 7 10 22 14 5 7 11 21 13 21 27 4 4 6 9 3 0 4 5 6 3 8 9 8 14 13 9 6 5 5 4 1 5 7 7 8 11 15 18 22 21 21 21
28 27 21 19 14 15 22 23 12 13 10 15 7 17 22 16 9 7 12 19 22 14 10 5 7 4 6 6 4 4 16 18 16 12 8 16 15 12 9 8 9 7 7 8 10 10 13 17 21 23 22 21 23 24
28 24 21 18 18 20 8 7 10 6 17 8 20 12 18 15 27 20 13 19 25 17 5 6 4 5 5 7 8 9 12 12 8 6 10 16 17 17 15 14 15 15 14 15 17 20 20 21 22 23 23 24 28 27
26 24 22 19 21 16 6 6 7 6 6 10 12 17 23 17 22 25 23 24 32 11 7 5 7 10 11 22 16 13 18 18 19 18 19 17 16 16 18 21 24 24 25 27 26 26 27 28 28 27 27 28 29 31
25 27 25 22 25 23 8 8 8 6 6 8 7 13 7 14 16 23 28 34 17 9 4 33 33 36 37 35 34 32 32 31 30 29 28 24 26 28 29 34 35 34 35 36 37 35 32 35 31 29 29 31 30 29
29 24 24 26 17 9 9 10 6 5 8 5 5 10 6 5 10 17 18 17 10 30 38 37 38 35 41 48 53 52 50 48 49 48 47 45 42 43 45 45 39 37 37 37 37 39 38 32 28 29 29 27 26 26
25 25 23 17 13 12 7 15 11 10 5 4 6 4 4 5 8 18 9 12 26 42 41 44 44 40 43 52 50 51 52 52 53 54 51 50 47 46 42 42 41 40 40 35 29 27 28 27 25 26 25 24 23 23
26 12 9 8 19 7 9 9 9 8 8 5 4 4 4 7 15 6 4 12 40 37 40 46 43 42 48 52 53 58 53 43 47 46 44 42 43 45 43 38 31 30 28 24 23 23 22 23 22 23 23 23 22 23
10 10 10 6 9 5 5 4 3 3 5 5 5 5 3 9 4 4 4 9 30 36 42 44 45 49 48 44 43 41 39 37 41 43 41 37 35 35 34 31 28 27 22 20 21 20 19 19 21 21 21 21 21 24
10 15 9 10 7 6 7 7 8 8 4 4 7 3 5 3 4 7 5 22 31 40 41 41 44 42 41 45 46 45 46 40 36 36 37 33 31 31 30 27 23 22 14 14 15 15 16 17 19 19 19 19 19 23
7 8 10 11 8 4 3 3 5 3 7 8 5 6 4 5 8 6 24 31 36 38 35 36 37 38 40 41 41 40 36 34 32 32 26 21 21 19 21 21 19 16 14 14 14 12 12 15 16 16 17 18 21 22
7 11 9 15 9 8 5 4 6 9 6 9 10 5 8 9 8 18 18 21 21 21 22 19 13 13 24 29 30 30 26 24 21 20 20 18 17 16 17 17 17 15 14 14 14 11 10 13 14 14 16 17 18 20
7 8 13 5 4 6 7 9 7 10 9 15 7 5 6 19 31 33 32 30 32 34 35 36 30 22 19 19 21 21 22 23 21 22 23 20 16 16 13 14 13 13 13 14 13 11 11 12 12 13 13 14 17 19
8 19 7 6 7 8 11 17 7 13 15 19 16 18 27 37 40 37 39 40 41 43 43 40 41 37 29 24 21 20 20 25 26 27 24 18 13 11 11 12 12 12 11 12 12 13 14 15 16 18 19 21 23 23
15 17 4 5 5 13 23 22 19 16 16 18 23 25 35 34 39 45 46 48 47 45 43 44 45 45 43 37 29 25 22 22 27 28 25 20 18 18 15 14 13 12 10 12 13 13 14 14 14 17 22 24 24 22
16 15 8 6 5 11 12 11 8 10 11 17 25 30 28 18 17 46 52 39 41 45 49 47 46 47 42 39 38 35 30 26 28 27 24 19 17 17 18 17 16 14 13 14 14 13 12 13 16 21 24 24 22 19
8 8 5 1 1 2 9 9 6 4 6 7 18 28 27 17 11 34 42 30 32 38 40 39 38 36 37 37 36 34 36 33 30 29 22 19 18 17 17 17 16 16 16 16 15 13 14 16 21 24 24 22 18 15

GFSWCAN_850_spd_102.txt.gz
Wind_Speed
17 18 13 10 14 16 15 14 16 13 11 9 8 8 7 8 9 6 4 4 4 4 11 9 8 5 4 4 2 1 2 1 1 3 3 2 3 1 3 3 4 6 5 5 4 6 7 10 7 6 2 2 4 9
23 21 18 12 11 15 16 15 16 16 12 11 8 8 7 7 7 7 4 5 6 7 8 16 18 16 16 13 4 5 2 1 2 0 1 1 3 3 3 4 2 4 5 2 7 5 2 18 6 13 2 2 6 10
24 23 19 14 13 13 15 16 16 17 14 12 11 10 9 8 7 6 6 5 6 6 10 10 8 13 19 19 15 5 5 6 4 5 2 1 6 2 4 6 3 6 7 5 3 4 12 21 25 26 22 19 15 11
18 21 20 17 13 15 14 15 17 16 16 13 13 11 11 10 10 10 8 8 6 4 3 4 4 8 9 12 17 18 15 7 5 5 4 3 3 7 3 4 6 7 9 7 10 19 22 22 18 17 15 19 21 21
16 20 20 20 15 15 16 15 17 16 15 13 13 13 13 11 11 13 13 13 11 6 4 7 19 19 17 17 14 15 14 12 6 3 4 4 3 3 4 3 9 14 10 8 7 8 12 7 6 5 10 12 13 18
16 19 21 21 19 16 17 16 17 17 16 14 12 14 14 12 10 8 6 4 6 7 4 3 6 8 6 8 12 12 12 10 6 3 4 4 5 3 4 5 9 18 19 25 13 11 13 12 13 16 19 22 15 12
19 19 20 22 21 19 18 16 18 18 16 14 13 12 13 12 10 7 4 1 3 1 4 7 4 4 7 8 8 9 11 8 8 4 6 4 5 7 4 7 4 11 18 22 23 22 16 19 12 13 11 11 10 9
16 18 19 20 20 21 20 18 17 19 18 14 12 13 14 12 14 16 19 16 12 7 6 3 3 3 10 6 5 8 5 8 7 4 3 5 4 7 7 18 17 16 13 18 22 21 21 20 21 17 14 11 10 11
15 16 16 17 18 17 20 20 18 18 20 15 13 12 12 12 7 9 14 14 13 13 5 5 2 2 10 3 5 7 6 3 4 4 5 6 5 8 13 17 16 16 11 6 6 9 10 15 17 17 15 15 15 14
14 15 16 17 17 17 16 16 16 13 18 15 12 4 5 5 8 5 3 4 7 10 9 6 6 2 8 5 3 5 4 2 3 3 3 5 7 24 31 32 27 25 21 14 15 19 18 16 15 14 15 15 16 14
16 15 16 17 16 14 14 13 12 15 18 17 8 6 6 4 4 4 3 4 5 4 8 8 16 5 9 3 3 6 3 2 2 1 3 3 5 7 15 14 13 11 23 30 26 25 22 19 14 10 12 14 16 16
20 18 18 17 16 15 14 10 13 18 26 18 6 8 5 5 6 3 3 2 5 5 5 4 6 8 7 6 3 5 3 3 5 3 2 4 5 14 11 8 8 6 7 11 13 14 15 17 15 11 9 13 15 15
20 20 20 18 17 15 13 11 14 18 26 18 8 7 6 5 4 7 9 4 4 6 9 7 3 8 5 6 1 3 5 5 5 3 5 6 7 5 5 7 9 8 6 6 6 5 5 9 14 10 9 10 12 15
21 21 20 21 19 17 13 11 14 24 23 10 8 6 6 6 6 7 6 2 5 6 15 15 6 4 4 3 2 4 2 2 3 4 7 3 10 11 9 7 6 4 4 2 1 1 2 7 9 8 9 11 13 15
20 21 21 23 20 17 16 14 15 24 24 8 8 6 10 14 9 6 14 6 4 8 21 7 4 4 2 2 3 1 2 5 5 5 3 7 5 9 7 5 4 4 3 1 2 1 2 5 8 10 12 14 15 16
21 22 25 21 19 17 15 16 18 29 13 13 9 7 6 3 6 13 12 11 11 18 14 3 2 2 6 3 4 9 4 7 4 3 10 6 9 10 8 6 5 5 4 3 2 2 4 7 9 10 13 16 17 18
19 26 22 16 15 15 15 16 22 13 10 7 10 25 19 8 13 14 21 19 19 21 3 3 4 8 2 3 5 6 6 4 6 6 8 9 12 12 10 8 8 9 7 5 4 3 5 9 12 15 19 19 19 19
26 24 20 17 14 15 16 15 8 6 7 12 7 19 23 26 25 19 16 21 23 19 10 6 3 4 5 5 4 4 14 13 11 13 18 17 16 17 16 13 12 14 14 12 12 12 14 15 16 18 20 21 21 21
26 21 19 18 15 14 7 9 14 7 15 10 17 18 16 18 28 28 25 24 29 21 12 8 4 5 7 8 7 14 9 10 12 10 12 14 13 18 23 20 18 19 19 22 23 23 21 21 23 23 26 25 25 24
23 22 21 20 17 11 8 8 13 9 9 13 16 15 12 16 19 24 26 27 33 14 6 5 7 18 13 23 25 28 30 25 22 21 24 30 35 32 27 25 30 26 23 31 35 36 32 34 32 29 30 32 30 28
23 26 23 22 24 22 9 8 8 7 6 9 11 14 8 14 15 17 23 31 16 7 4 28 39 41 41 44 43 41 35 31 30 33 36 34 34 35 39 40 35 32 39 43 42 43 41 44 39 33 29 30 30 28
26 21 20 21 15 11 14 16 7 5 6 4 9 10 5 5 7 13 13 15 8 22 28 37 42 40 39 47 57 58 58 53 54 54 54 51 45 43 41 40 42 46 48 49 44 38 38 41 37 31 27 25 25 25
22 20 15 11 12 13 9 17 11 11 5 5 9 4 4 6 8 15 7 12 21 41 50 48 55 54 51 57 48 52 47 42 44 45 45 43 45 47 49 50 47 46 47 46 40 35 35 31 25 24 22 22 22 22
19 10 9 9 16 5 10 10 8 7 6 4 4 5 4 7 15 6 5 10 36 42 37 45 49 47 46 45 46 48 50 39 42 47 48 42 40 43 48 46 44 42 40 33 29 29 25 22 20 20 20 19 20 21
8 9 8 10 11 6 6 5 5 4 5 6 7 6 3 9 4 5 4 9 34 39 40 43 41 40 40 43 41 42 40 34 38 44 44 39 40 39 38 39 38 35 31 28 27 25 21 19 19 19 19 19 19 20
9 15 10 7 6 6 6 6 9 9 4 6 8 4 7 4 5 6 4 30 36 34 35 31 32 34 37 41 42 41 42 34 34 41 41 35 36 37 37 36 34 30 20 17 19 18 18 18 18 18 18 18 18 20
6 7 6 12 10 7 4 3 4 3 7 8 4 6 5 5 7 6 29 33 36 32 25 17 16 21 27 25 20 29 29 29 32 36 31 28 28 27 27 28 27 20 13 12 13 12 13 15 15 16 16 17 19 19
10 9 8 11 9 10 4 3 7 9 5 8 9 7 7 8 7 15 19 22 18 18 25 34 36 29 26 26 20 21 26 28 28 26 28 28 28 27 24 20 16 12 11 12 12 12 12 13 14 13 15 16 18 18
13 20 15 6 6 5 7 9 7 12 12 15 6 5 7 23 34 31 30 29 32 34 39 43 42 40 42 41 33 27 24 27 29 27 29 30 24 17 14 15 15 15 14 14 14 14 13 13 12 12 12 14 15 16
12 22 12 7 5 7 12 17 15 22 22 27 26 21 26 37 39 35 36 38 40 44 49 49 49 48 49 45 42 36 30 25 25 31 28 30 23 14 10 12 13 13 13 15 15 14 15 15 15 15 16 19 21 23
17 20 8 12 9 27 35 33 29 24 19 19 26 26 35 32 36 36 39 45 49 50 50 53 53 50 49 48 47 41 38 32 29 28 24 25 23 22 16 13 11 12 14 14 15 15 16 15 14 14 18 20 22 25
19 17 8 6 7 19 13 9 13 17 23 22 27 33 26 19 20 43 52 41 40 43 46 45 46 49 46 44 43 42 38 34 30 27 25 21 22 25 26 18 16 16 16 16 16 16 16 15 14 16 18 20 24 26
8 10 8 2 2 5 13 11 6 5 8 8 18 29 29 26 17 46 36 28 35 43 44 39 34 33 34 36 37 34 32 30 28 28 27 25 24 26 26 16 19 21 20 19 18 17 17 16 15 17 20 23 26 26

GFSWCAN_850_spd_105.txt.gz
Wind_Speed
14 16 17 15 12 14 13 13 15 17 14 12 12 9 7 6 9 11 7 5 5 5 8 9 9 8 5 5 3 2 3 2 2 3 2 1 3 2 3 5 4 7 5 5 6 7 9 14 8 6 3 2 1 3
17 18 20 19 14 11 13 14 14 17 14 13 13 11 8 7 6 8 8 8 9 9 9 10 12 15 15 13 8 5 2 1 2 3 2 3 4 3 4 4 4 5 9 3 8 5 2 18 8 12 2 1 2 4
18 18 18 18 16 11 11 12 13 15 17 13 13 13 11 9 8 8 8 9 12 9 14 14 15 17 21 23 21 9 7 8 3 5 2 2 6 2 4 6 6 6 11 5 4 7 14 22 20 20 14 11 11 11
15 15 14 14 15 13 11 11 12 14 15 16 13 13 13 12 10 10 10 9 10 8 5 5 9 9 9 13 20 23 15 9 8 6 5 4 4 6 5 8 10 11 7 8 14 18 26 23 19 20 16 14 11 14
15 15 16 16 15 14 14 13 12 13 14 15 16 14 13 12 12 11 12 13 12 7 5 11 19 23 21 19 16 18 20 11 7 5 5 5 6 3 9 6 12 18 10 10 6 5 12 7 5 7 7 8 10 11
17 17 18 19 17 16 14 15 14 14 13 15 14 13 14 12 11 10 4 4 2 6 4 4 5 7 7 7 10 11 10 9 8 6 6 7 5 5 4 5 6 17 27 26 15 6 9 10 14 14 15 18 19 20
19 19 18 19 20 18 17 15 15 14 15 15 15 13 13 13 9 5 4 2 0 2 4 7 3 3 3 3 3 5 10 5 6 6 7 10 8 8 4 9 6 14 22 24 23 17 15 21 14 15 14 15 16 15
16 16 15 16 16 16 16 17 16 14 13 15 16 15 13 14 14 13 16 17 12 5 5 3 4 3 6 4 5 5 3 5 6 6 3 5 4 8 8 17 22 26 17 18 20 24 27 16 17 20 20 18 16 15
14 14 14 13 12 12 13 12 14 15 11 14 15 13 14 11 4 6 8 11 13 13 4 4 3 2 7 3 3 5 5 4 4 4 5 4 5 9 15 20 22 19 14 8 8 17 20 20 21 17 18 18 19 18
13 13 13 13 13 11 11 10 9 9 9 12 11 6 4 4 6 9 4 2 7 9 8 6 6 3 7 5 4 3 4 3 3 3 3 5 8 29 32 27 21 16 17 15 13 13 16 19 19 20 21 20 19 18
15 14 14 14 13 12 10 7 5 6 11 14 5 6 7 5 3 4 3 4 5 4 8 7 8 7 7 4 3 5 2 2 3 2 3 3 5 5 10 10 15 23 22 24 24 20 20 19 23 19 15 14 16 15
16 16 16 16 13 12 8 3 8 7 8 9 6 7 4 4 4 3 3 2 5 5 5 3 2 6 3 6 4 3 2 1 5 2 2 4 5 11 12 8 6 7 5 3 7 11 15 19 16 14 13 10 12 13
16 17 16 16 16 13 9 7 9 9 13 12 5 5 5 5 6 6 7 4 4 5 5 5 3 5 4 5 3 2 3 5 1 3 4 6 9 13 8 5 8 10 8 4 3 4 4 6 8 10 10 9 10 12
17 17 16 15 16 15 11 11 10 9 14 6 8 6 7 6 6 6 6 2 4 5 9 9 4 3 3 3 3 4 2 2 4 4 7 3 11 13 11 11 8 6 4 3 1 1 3 3 0 4 7 10 12 13
17 17 16 16 15 14 13 11 13 14 11 6 6 6 10 11 8 6 12 8 5 6 11 7 3 4 3 3 3 1 2 5 6 5 3 8 17 10 7 7 6 5 5 4 2 3 3 1 1 4 7 11 15 16
17 18 21 16 12 12 14 15 15 20 8 8 8 7 4 3 6 10 16 12 14 11 10 3 2 2 6 3 6 9 3 6 4 3 10 16 17 11 9 8 8 8 8 7 5 4 2 1 4 6 9 13 16 17
16 19 14 10 9 13 14 13 13 11 9 7 10 27 26 23 20 17 13 12 17 18 4 3 6 9 1 3 4 4 6 3 6 11 15 16 18 18 16 13 11 11 11 11 10 8 8 9 9 11 13 12 19 21
24 19 14 11 10 12 12 13 9 8 11 19 9 22 16 21 21 23 18 14 16 13 13 6 4 6 6 6 5 5 20 23 20 18 11 16 14 15 16 16 14 16 18 19 19 17 16 18 18 20 19 22 23 24
24 21 18 14 14 13 6 8 16 7 18 18 23 20 15 13 21 21 21 23 25 19 9 8 6 5 6 11 17 26 28 28 28 30 31 34 32 34 31 27 20 22 29 31 28 29 28 25 24 29 30 33 31 27
23 23 20 17 14 9 6 8 10 10 10 19 28 23 17 21 24 22 26 28 29 13 8 5 7 21 19 27 30 34 36 39 31 25 30 35 34 32 33 30 32 38 37 36 41 42 42 38 33 37 37 38 40 34
22 25 22 20 20 19 9 8 10 8 8 13 20 15 11 15 15 17 18 21 14 7 5 22 32 37 47 46 42 37 40 40 36 36 36 38 37 34 38 43 45 43 40 40 42 44 46 45 46 45 39 37 33 34
23 22 19 19 15 10 14 18 9 7 9 9 8 7 6 5 9 11 12 12 9 18 23 34 41 43 45 45 49 44 44 46 42 41 46 47 46 41 40 41 39 42 41 42 42 43 46 48 46 40 37 35 31 32
22 19 17 14 12 12 9 19 13 12 6 6 5 4 4 6 7 10 7 10 15 31 40 45 48 49 46 47 43 44 46 46 42 42 44 42 40 41 41 42 39 40 42 43 40 40 39 35 34 32 30 28 28 25
24 14 12 12 17 6 8 8 9 9 9 6 5 9 8 7 7 6 5 15 31 37 39 46 45 36 36 36 38 44 46 37 35 41 43 41 40 41 38 37 37 39 40 38 35 34 35 34 30 28 26 25 24 21
9 9 10 7 11 8 6 5 4 6 6 9 13 9 3 7 5 5 5 16 35 37 38 40 34 32 32 38 39 33 29 29 32 37 41 34 36 37 36 38 38 38 37 35 35 33 32 30 27 25 25 24 22 21
10 13 9 8 6 7 7 6 7 12 12 7 7 5 8 4 6 7 7 37 34 33 35 31 32 29 28 33 33 27 23 23 24 27 30 30 33 35 37 37 36 38 31 27 25 25 26 25 23 23 23 21 21 21
8 9 10 16 13 6 4 1 2 3 5 7 4 6 6 7 8 6 30 24 33 35 33 31 26 24 27 26 26 27 28 28 26 24 28 33 31 29 32 37 38 37 29 25 19 17 17 17 17 18 19 20 21 19
11 10 8 14 8 12 7 4 4 6 5 6 5 6 4 6 6 21 24 26 29 21 20 23 30 32 32 36 37 35 32 29 28 28 28 32 31 28 28 29 30 29 25 23 17 13 13 14 15 16 17 17 17 17
14 22 18 11 11 8 12 9 7 12 17 14 5 8 8 23 36 42 40 36 39 40 38 40 38 38 43 46 47 49 46 39 32 35 34 34 32 24 22 23 16 15 17 17 15 14 15 15 15 15 14 15 14 15
17 24 16 10 10 11 19 20 23 30 31 33 33 30 32 40 46 45 45 46 43 41 43 42 43 47 52 52 55 54 53 49 41 35 40 39 35 28 22 20 17 14 14 16 16 16 16 17 17 17 17 16 17 18
17 21 13 19 16 33 36 32 32 35 31 31 35 29 38 43 41 43 45 47 44 40 43 47 49 50 51 52 53 51 53 43 38 34 32 35 35 31 22 21 20 14 12 13 15 16 17 17 17 17 16 16 16 19
18 19 10 12 17 32 29 22 19 21 24 23 30 33 28 21 26 44 44 35 37 41 44 43 45 50 47 46 47 47 43 37 34 33 30 27 29 31 33 26 22 18 16 13 14 17 18 17 17 16 16 16 17 17
12 17 18 12 12 9 17 10 7 11 16 13 19 28 29 30 26 46 43 39 40 45 48 48 46 45 44 41 39 39 39 36 30 26 27 24 24 25 24 27 24 24 19 15 17 20 19 18 19 18 17 16 16 19

GFSWCAN_850_spd_111.txt.gz
Wind_Speed
10 11 10 12 13 13 12 11 8 9 12 14 12 11 12 11 9 8 6 7 4 4 8 6 5 5 3 2 3 0 2 1 2 1 2 3 2 3 1 3 6 7 6 4 4 4 9 10 6 7 5 2 6 7
14 13 12 13 14 13 12 10 10 8 8 10 12 12 11 10 9 8 6 7 8 7 6 8 10 12 13 12 3 5 2 3 5 2 1 0 2 1 3 4 2 3 7 5 10 8 7 21 10 14 9 10 11 10
18 16 13 12 12 12 11 10 11 11 9 9 9 10 11 12 12 10 9 8 10 6 9 6 1 6 9 16 15 5 5 6 5 4 4 2 4 3 3 6 3 4 9 5 1 7 17 28 31 29 26 21 20 20
20 18 14 12 11 10 11 11 10 12 12 11 11 11 11 11 11 12 12 10 6 4 3 3 4 5 5 7 10 19 22 9 5 3 3 3 3 9 4 5 5 9 3 5 8 21 20 27 27 29 29 28 26 26
25 21 16 14 12 11 11 12 12 12 14 12 11 12 13 14 14 14 8 6 3 2 3 8 16 13 8 7 9 13 17 16 7 1 2 3 5 3 4 2 10 16 10 7 10 25 16 18 12 8 10 11 13 15
30 23 18 15 15 15 12 14 14 13 12 11 10 11 12 12 13 15 2 4 6 4 5 3 4 5 7 5 4 8 8 11 9 5 4 6 7 4 3 4 10 16 27 32 24 31 25 22 19 15 15 16 15 17
25 20 17 16 16 16 15 14 15 14 13 11 10 10 10 11 11 6 5 6 8 8 4 7 6 3 3 1 0 3 6 5 6 4 5 4 3 6 3 4 4 7 16 23 29 31 26 31 25 19 16 14 15 18
16 15 14 13 13 13 12 12 12 11 11 11 9 10 10 12 13 11 11 11 9 6 4 1 4 4 0 1 0 2 3 4 6 4 3 3 3 5 6 15 24 25 26 28 26 20 28 27 25 25 24 22 19 17
10 12 12 11 10 10 10 10 10 9 9 9 9 9 12 12 4 1 6 8 5 8 3 3 2 3 1 1 1 2 3 2 2 3 4 2 3 6 8 17 26 32 21 31 35 31 27 22 22 22 21 21 21 17
11 11 9 8 7 7 7 7 7 6 4 4 4 3 4 3 4 9 2 2 4 6 5 5 1 2 3 2 2 2 3 2 2 2 2 2 5 18 26 20 18 26 23 24 24 19 20 22 22 21 22 18 15 17
11 11 9 8 7 6 4 5 2 1 1 4 4 5 4 7 6 2 0 1 3 3 6 6 7 2 4 2 3 2 2 1 2 1 2 3 4 5 11 23 23 18 16 16 15 18 22 22 22 20 16 13 17 14
10 10 10 10 8 7 5 4 3 3 2 2 3 5 4 3 1 1 2 1 3 3 4 5 5 7 3 4 1 1 1 0 5 0 1 3 4 12 23 27 17 14 16 16 14 14 13 13 13 14 13 8 4 6
10 10 10 9 8 9 9 8 7 5 6 4 3 3 2 3 2 4 4 3 2 4 7 6 2 3 3 3 2 2 1 4 1 1 4 5 13 19 21 16 14 13 14 14 13 12 12 10 7 4 1 1 2 4
9 10 10 9 8 9 10 10 8 9 4 2 3 4 5 4 5 5 4 4 3 3 8 7 3 2 3 2 2 2 3 2 3 3 6 3 10 15 19 17 18 18 17 17 16 13 10 8 6 4 3 3 5 6
9 10 11 10 8 9 9 9 9 10 5 4 4 5 7 8 5 1 8 4 3 5 8 3 1 2 1 1 3 0 1 4 6 5 3 8 9 14 17 18 23 23 23 22 18 15 13 11 7 5 5 5 5 5
9 10 11 7 9 11 11 10 12 10 5 6 8 4 7 4 3 6 9 7 7 7 6 2 2 1 4 3 4 7 5 7 5 4 12 10 10 21 21 21 30 31 31 30 27 22 16 14 16 17 17 15 13 14
10 12 2 7 10 12 13 14 12 8 7 6 8 14 12 6 9 5 5 4 8 10 3 4 5 11 0 3 4 5 6 6 26 27 28 18 26 31 29 33 39 38 36 37 33 31 27 21 21 22 24 26 26 24
16 11 5 10 9 10 12 12 7 8 9 13 8 9 12 11 13 16 16 17 15 13 7 6 4 5 6 5 6 5 22 30 29 39 47 42 42 39 37 43 42 37 35 37 34 31 30 33 33 28 27 26 30 32
16 12 10 11 11 13 6 8 11 5 15 9 14 18 17 18 20 21 17 18 21 23 15 7 6 6 9 12 17 24 31 39 37 40 39 40 42 43 43 42 43 41 40 39 39 40 41 38 35 35 39 39 43 41
15 15 15 14 15 11 8 7 10 9 7 9 19 20 20 24 27 28 25 25 28 20 12 7 11 24 14 21 29 37 42 41 39 38 38 39 38 42 44 43 43 42 43 46 45 42 41 41 40 39 39 37 38 41
17 21 19 19 20 23 9 8 12 8 7 9 14 18 16 20 21 23 28 29 23 15 14 26 33 36 41 46 47 44 42 42 42 39 40 39 43 45 44 47 45 43 41 42 42 42 39 40 39 39 39 39 37 36
21 17 16 18 16 10 12 16 9 8 8 6 6 7 7 5 11 21 28 16 14 27 32 35 41 44 41 39 42 46 50 50 50 49 44 41 42 45 44 42 40 40 40 41 42 43 40 39 36 36 36 35 33 32
19 15 12 11 11 10 7 15 11 10 5 6 8 4 5 9 18 24 8 18 29 32 36 42 47 48 44 46 47 48 49 51 51 45 44 46 43 37 36 35 32 34 35 37 38 38 38 37 37 36 36 35 32 31
19 10 8 8 15 5 9 11 10 7 8 3 4 5 5 11 12 8 5 20 36 37 37 39 35 39 46 47 47 50 50 47 40 41 42 40 37 31 28 32 35 37 39 38 37 37 38 38 36 37 37 34 32 32
8 9 8 7 10 8 6 4 5 3 6 6 6 5 4 9 3 3 4 17 34 36 39 39 41 42 38 42 43 44 47 42 37 36 36 29 27 31 35 33 36 38 38 37 37 35 37 35 33 31 30 29 28 28
8 13 9 11 5 7 6 5 7 9 5 4 7 7 7 4 4 8 6 30 32 34 33 34 37 37 37 41 41 42 33 27 20 24 33 31 33 35 33 37 41 48 39 39 40 42 41 40 35 28 28 26 24 23
7 8 10 14 10 8 3 4 5 3 5 6 4 3 4 5 7 8 35 37 38 39 33 30 26 26 34 39 37 35 36 34 29 33 39 36 34 33 36 39 43 45 43 39 39 39 39 36 34 25 24 23 24 20
8 12 9 17 12 18 5 3 6 8 9 15 4 5 8 10 16 36 39 45 38 38 37 39 46 38 37 42 43 47 42 37 40 42 39 39 39 38 39 40 38 36 32 29 27 27 26 27 24 22 21 20 19 16
14 19 18 7 12 7 14 10 11 26 39 28 10 16 21 40 43 43 48 49 45 41 46 52 50 46 46 48 48 48 44 43 39 38 39 42 45 45 39 33 32 30 28 28 24 23 23 24 17 20 17 17 16 16
27 22 12 13 8 9 29 28 33 44 35 34 38 40 41 45 50 50 48 48 47 49 51 49 49 48 47 47 51 52 47 46 46 42 41 44 47 40 30 29 30 29 27 28 26 22 22 24 19 17 18 14 15 13
13 19 17 21 14 36 45 50 39 38 41 39 40 35 41 52 53 51 49 48 46 45 44 47 50 52 51 56 51 46 50 46 41 37 35 36 35 34 33 31 31 29 27 27 26 24 21 23 20 15 14 14 13 12
22 22 12 9 17 42 32 29 21 19 31 30 37 42 40 36 37 49 60 47 45 47 54 51 49 54 48 47 45 46 45 44 42 38 37 36 35 32 31 31 30 29 28 27 26 24 24 22 22 19 18 15 14 10
13 19 24 19 14 11 26 11 10 12 26 30 38 39 41 39 29 58 55 47 46 48 51 53 50 47 45 45 44 43 43 40 37 37 35 32 31 31 32 32 30 29 28 26 24 24 24 23 25 22 18 15 12 11

GFSWCAN_850_spd_117.txt.gz
Wind_Speed
20 17 14 12 9 7 5 6 5 6 7 8 8 9 9 10 11 10 6 7 6 3 5 5 5 3 3 3 3 4 2 1 2 1 2 2 2 2 1 2 5 6 6 4 3 3 8 10 5 6 4 5 8 15
21 19 16 13 11 9 7 6 6 5 5 6 7 7 8 9 10 10 9 9 9 5 4 4 8 9 8 5 2 5 1 4 5 3 1 2 2 0 2 3 1 3 6 4 9 7 4 10 11 7 13 18 29 36
24 20 17 14 11 9 8 7 6 6 5 6 7 7 7 7 8 9 12 12 11 4 5 4 5 11 13 13 13 4 3 4 4 3 5 2 4 4 3 5 1 4 6 4 1 4 9 20 26 30 25 25 29 24
25 22 18 15 11 10 10 8 7 7 7 7 8 9 9 8 9 11 12 10 6 3 2 1 3 5 5 6 7 15 11 3 2 1 0 2 2 6 3 2 3 4 4 3 7 15 21 12 13 16 29 27 26 34
26 24 20 17 14 10 10 10 9 8 8 9 10 10 8 8 9 11 9 2 6 6 2 5 9 9 7 8 10 12 12 12 7 3 2 3 3 1 2 1 4 8 5 4 5 9 7 23 32 41 35 28 27 27
28 26 23 20 17 14 13 13 11 11 10 10 10 10 9 8 8 10 2 1 3 13 6 2 3 3 3 2 3 5 7 8 6 4 3 3 3 2 1 3 11 11 14 12 8 25 34 37 36 26 23 32 29 25
28 27 26 22 23 19 17 16 14 13 11 11 11 10 8 7 7 5 5 6 14 12 5 5 2 2 1 1 1 2 6 4 5 4 3 1 2 3 2 3 3 5 13 24 27 17 26 17 28 32 26 24 21 20
27 28 27 28 25 23 22 19 15 13 11 10 10 9 7 7 10 10 10 11 9 3 4 1 3 1 2 2 2 3 3 3 3 2 2 3 2 2 4 10 19 19 26 24 12 26 23 25 28 26 22 19 19 20
29 32 35 30 28 26 21 17 13 11 9 9 8 6 6 9 5 4 3 5 7 5 2 2 1 3 2 2 3 2 2 1 2 1 2 2 2 5 8 13 16 19 16 24 26 23 20 24 25 26 26 21 20 21
37 36 30 29 22 18 15 13 11 9 8 7 5 3 3 3 4 5 3 1 2 4 5 4 4 3 3 2 1 2 1 1 1 2 2 2 3 17 19 16 11 14 11 13 20 31 32 33 31 31 28 23 21 20
32 29 26 23 21 17 12 9 8 9 9 8 6 4 3 2 3 1 1 1 2 3 5 5 8 2 4 2 2 2 2 1 1 2 1 2 3 5 2 7 7 11 15 17 20 23 24 26 29 30 29 24 19 14
26 25 23 19 16 11 10 11 12 12 9 8 5 3 2 1 1 1 2 1 3 3 3 3 3 6 2 2 1 3 3 2 4 0 1 3 4 3 3 10 12 15 21 24 25 28 28 27 28 29 29 26 21 17
16 15 15 15 14 14 13 13 13 12 11 7 3 3 3 2 2 4 4 2 2 4 5 4 1 2 2 3 2 1 1 3 4 1 4 5 3 3 10 17 21 22 26 26 26 29 30 30 28 27 27 25 26 24
13 14 14 14 14 14 13 14 14 12 6 3 5 2 4 4 4 3 4 3 2 3 8 7 4 1 2 2 2 1 2 3 2 3 6 3 9 9 10 22 23 26 30 32 33 34 33 30 30 28 29 30 29 29
14 14 14 14 14 14 13 13 13 14 5 4 4 4 5 7 5 5 7 6 2 5 8 4 4 1 2 1 2 1 2 4 5 5 3 4 5 9 14 23 23 26 29 32 32 33 34 35 35 35 32 32 33 33
13 13 12 12 13 12 12 12 13 11 6 5 5 3 6 3 9 13 12 11 5 6 4 2 3 3 3 3 3 6 2 6 4 3 2 13 21 19 28 26 31 35 36 33 32 32 34 35 37 39 38 36 37 36
13 7 12 13 13 12 13 13 8 5 5 4 6 13 10 3 3 4 6 7 7 7 2 3 2 8 1 2 3 4 5 3 6 20 33 39 43 45 43 40 42 44 42 37 36 36 37 38 40 41 41 38 35 35
10 10 11 13 17 16 13 7 5 4 5 8 5 8 11 11 11 12 8 8 6 8 5 4 3 3 5 5 5 5 13 21 31 37 36 36 40 46 48 47 50 44 40 39 40 40 42 42 41 40 38 34 33 35
13 13 14 14 16 11 6 7 4 3 9 5 9 10 10 13 18 19 18 17 18 17 5 4 4 4 7 11 17 25 31 29 32 40 45 45 41 40 41 40 39 43 45 44 44 44 43 39 36 34 30 29 31 33
14 15 14 15 16 6 5 4 6 4 3 3 9 10 13 13 17 18 21 23 27 10 9 4 8 24 22 30 35 39 43 41 40 36 40 39 35 35 37 41 45 47 48 46 45 43 41 40 32 30 31 32 33 33
17 17 16 15 13 8 3 5 5 5 5 7 7 9 7 15 22 24 25 25 14 9 9 23 34 38 42 46 48 44 40 43 40 39 42 42 38 38 41 43 47 46 44 42 42 43 39 38 32 32 34 34 33 32
23 22 17 17 7 7 7 9 5 4 7 8 7 7 6 6 12 20 24 14 12 25 31 35 37 39 43 45 48 47 46 45 47 48 44 41 39 37 38 39 40 42 42 42 42 41 39 30 32 35 34 35 36 37
21 24 15 9 5 12 5 11 9 8 4 5 6 3 5 8 12 15 7 15 27 33 35 39 41 43 45 46 46 47 47 49 50 47 46 42 41 37 38 38 39 38 38 38 36 35 33 32 34 35 35 37 37 37
25 18 11 14 13 9 7 9 8 5 6 4 3 4 4 9 8 8 5 16 33 38 37 44 46 44 45 42 43 46 44 43 42 39 36 34 35 33 32 31 32 34 36 38 36 35 32 35 35 37 38 40 39 38
11 13 10 7 11 8 6 3 4 4 6 6 3 5 5 9 4 3 4 19 32 39 41 43 43 42 36 40 42 43 41 38 38 36 32 29 30 30 35 36 36 36 35 36 34 31 34 36 37 39 39 40 39 38
6 9 11 15 9 7 8 6 8 9 4 4 8 8 3 3 3 6 5 31 36 37 37 38 39 37 36 39 40 39 38 34 37 37 35 36 39 37 39 40 38 42 38 35 34 36 44 43 41 39 40 36 35 35
6 6 10 11 9 8 4 5 5 3 6 8 4 3 4 6 8 8 31 35 38 41 41 41 41 40 41 44 44 44 44 44 48 48 47 45 44 44 42 42 41 47 44 41 41 41 44 42 41 39 34 34 33 32
6 15 9 17 10 13 5 3 6 7 5 10 5 4 7 8 13 36 40 44 44 44 45 47 49 50 51 53 53 52 51 51 52 48 45 47 48 48 50 47 45 42 40 36 34 33 34 33 32 31 31 34 34 30
8 10 15 6 6 7 14 8 8 19 35 25 7 14 19 41 45 45 48 46 48 48 49 52 57 58 52 51 50 50 50 50 43 42 44 47 50 50 43 39 37 36 34 32 28 27 28 28 30 30 31 33 32 27
10 18 11 8 7 8 21 27 34 41 35 34 35 35 38 47 58 55 50 51 48 49 54 51 49 45 43 42 45 46 45 42 41 41 40 43 50 49 39 38 36 35 31 26 27 29 29 29 29 29 28 30 29 27
6 18 9 12 10 29 42 44 36 37 38 39 40 33 45 57 60 50 48 52 49 51 48 47 49 46 43 45 44 43 47 47 39 40 41 43 40 35 34 34 31 29 28 27 29 30 29 28 29 29 29 30 27 25
13 16 11 4 12 34 28 26 22 23 32 31 33 35 38 32 45 49 39 30 32 37 40 40 43 46 44 44 45 45 46 45 44 42 42 38 36 37 35 32 33 32 31 30 29 28 28 29 31 31 30 27 24 22
7 10 14 12 8 9 16 11 9 11 19 19 27 32 35 27 15 37 38 35 35 37 38 38 40 42 43 42 41 42 41 42 40 38 37 35 35 32 30 29 29 28 27 27 27 27 27 26 26 25 24 22 21 19

GFSWCAN_850_spd_120.txt.gz
Wind_Speed
26 23 21 18 17 14 10 7 6 6 5 5 5 5 7 8 9 9 7 8 5 3 4 6 6 5 4 4 3 4 2 1 2 2 2 3 3 4 1 4 5 6 6 4 4 2 6 7 3 3 3 8 22 28
29 26 22 20 18 15 12 9 7 6 5 5 5 6 6 7 8 9 9 11 11 5 3 4 8 8 8 5 2 6 2 3 4 3 1 2 2 1 2 3 0 3 5 5 9 6 3 4 8 10 18 22 17 28
32 28 24 21 19 16 13 11 8 6 5 6 6 7 7 8 8 9 11 12 10 3 3 3 6 10 11 10 9 4 4 5 4 3 5 2 2 4 4 5 2 4 6 3 1 1 1 19 13 10 23 24 38 34
35 31 27 22 20 17 14 12 10 8 6 6 6 8 9 7 8 9 10 10 7 4 1 1 3 4 4 6 8 13 11 4 4 3 2 2 2 6 3 1 3 4 6 4 5 9 15 1 23 32 35 32 28 25
37 33 29 25 21 18 15 14 13 11 8 7 8 9 9 9 7 9 9 2 5 7 3 3 6 7 8 9 10 9 10 13 7 1 1 3 2 2 1 1 4 8 5 4 4 1 3 21 31 27 30 34 31 31
39 34 30 27 23 20 16 14 13 12 11 9 9 9 9 8 7 8 2 1 1 13 5 2 2 2 1 2 3 5 8 8 5 5 4 4 3 2 2 3 6 9 7 6 6 20 24 24 20 23 29 29 26 25
38 34 30 27 25 24 20 15 15 13 12 10 10 10 10 8 6 4 4 4 11 9 2 5 2 0 1 3 4 4 7 4 3 3 2 2 2 4 2 3 4 2 9 13 11 14 15 10 24 26 25 27 24 22
35 33 32 31 29 27 24 20 17 15 13 11 10 9 8 7 9 9 10 10 8 5 4 1 3 1 3 1 0 3 5 6 4 3 2 2 2 2 4 10 11 9 13 3 12 10 10 15 19 21 23 26 26 24
36 34 37 34 32 31 25 20 19 17 15 11 10 7 6 6 4 5 3 3 4 5 2 2 2 3 5 3 2 1 1 1 3 2 2 3 2 5 7 7 5 11 8 8 13 13 16 21 25 28 29 29 30 29
34 33 33 33 31 29 27 24 20 18 13 10 9 5 4 4 5 5 3 1 1 3 4 3 3 3 4 3 2 4 1 1 1 2 3 2 3 18 15 12 1 6 7 10 18 24 25 27 27 28 29 30 29 28
39 33 39 37 35 35 26 25 20 18 14 13 7 5 5 5 2 1 1 1 1 2 3 3 8 1 4 2 2 3 3 2 2 3 1 2 3 3 5 8 7 5 7 11 12 17 21 24 28 29 29 28 28 29
43 39 40 34 34 33 26 24 22 20 12 10 5 6 5 3 2 1 1 2 3 2 3 3 3 5 2 3 2 2 2 1 3 1 2 3 3 8 9 7 5 8 12 16 20 23 24 24 24 25 28 30 30 31
37 36 35 32 29 28 26 21 19 16 13 12 5 4 3 2 2 6 5 3 2 3 4 5 3 4 3 2 4 2 2 3 2 1 4 4 2 12 12 9 12 14 17 21 24 26 28 29 27 28 29 29 31 32
26 26 27 27 26 25 23 22 19 20 13 4 5 3 4 3 4 4 4 3 2 3 6 6 4 1 2 2 3 3 1 3 1 3 5 3 9 6 6 12 27 21 21 25 28 31 33 34 34 32 33 33 34 36
22 21 19 18 18 19 20 19 19 19 6 5 4 3 4 5 3 1 2 2 1 3 7 4 2 2 0 2 2 2 3 3 5 4 3 7 7 16 18 18 23 21 28 34 37 39 37 35 36 39 37 37 37 38
18 18 18 18 17 17 19 19 17 14 4 5 4 1 3 1 3 7 8 8 3 5 4 2 2 3 3 3 5 7 4 6 4 3 2 20 24 23 29 33 32 34 37 41 43 38 34 33 35 39 41 40 36 34
18 13 19 19 18 18 18 18 13 6 6 5 4 6 5 1 3 1 3 4 5 6 2 3 3 8 3 3 3 3 5 4 4 7 22 28 30 37 45 46 44 44 39 40 39 39 42 41 40 40 41 40 35 32
13 16 19 20 21 20 18 8 6 6 4 6 4 6 11 8 6 6 4 4 3 6 5 4 2 3 5 5 4 4 8 13 23 32 37 38 40 43 42 44 44 40 39 42 42 42 42 43 43 43 41 39 38 31
13 17 19 20 21 13 7 8 4 4 5 2 6 8 8 8 12 12 12 12 11 9 4 3 3 4 5 8 6 18 25 28 30 34 42 44 42 41 40 37 37 38 41 44 43 43 43 44 42 41 39 38 35 32
14 16 16 19 17 4 4 4 5 2 3 3 6 9 7 6 9 11 13 15 16 6 6 4 4 16 18 26 30 36 42 42 38 34 38 39 35 33 34 33 37 43 44 43 41 40 43 43 41 41 41 38 33 34
16 17 17 17 14 3 3 5 5 3 3 4 4 6 5 12 16 20 22 16 9 5 6 18 31 38 41 43 43 45 46 41 38 37 40 39 38 34 40 42 40 39 38 39 39 42 38 41 39 37 37 34 33 33
20 21 16 15 5 7 5 7 3 4 4 2 4 5 5 5 8 10 11 13 10 27 33 35 39 41 43 45 47 46 46 45 44 45 46 43 39 36 36 38 36 36 37 38 37 37 36 33 34 38 37 34 33 33
20 21 11 8 6 9 4 10 6 5 3 4 4 3 4 5 6 5 6 8 13 26 29 34 38 40 45 46 46 46 47 48 49 48 48 45 42 41 39 33 28 29 33 35 35 37 37 35 40 38 36 36 35 37
27 17 11 11 11 7 7 8 7 5 3 3 4 3 4 8 6 6 4 13 30 33 35 40 41 43 44 43 42 47 45 43 42 42 40 39 40 40 36 35 34 34 35 39 38 37 35 36 36 41 38 34 36 37
13 11 10 7 10 8 6 5 4 4 5 6 4 4 4 7 3 3 5 20 34 37 38 38 38 39 37 41 43 43 41 41 40 40 39 40 42 40 39 38 39 41 40 43 41 40 41 43 43 43 43 41 40 37
6 10 12 13 10 8 8 7 10 9 4 6 8 6 3 3 2 6 5 29 31 34 35 38 39 37 37 41 42 44 46 43 43 44 49 50 47 43 44 44 45 46 43 40 36 38 44 47 45 43 45 43 38 33
7 5 9 12 13 8 4 3 6 4 6 7 4 5 4 5 7 8 32 35 35 36 36 38 40 43 45 47 49 49 49 48 46 49 49 45 45 46 45 46 45 51 48 47 41 40 43 45 44 42 40 37 32 29
6 12 9 16 8 11 5 4 6 8 5 9 8 4 7 8 9 34 38 41 43 44 46 50 54 53 53 53 53 52 52 50 49 49 49 50 50 50 51 50 48 46 43 40 40 36 35 36 37 34 33 33 32 31
6 9 15 5 5 5 12 8 8 13 23 15 5 6 10 35 43 43 48 50 51 46 49 53 58 52 46 48 49 48 47 46 44 43 44 44 47 51 42 39 39 39 40 39 36 31 31 31 31 31 31 32 33 33
9 19 10 8 7 7 15 21 22 33 32 29 30 30 35 47 56 50 45 48 48 51 55 50 50 47 47 44 47 47 43 43 43 43 42 43 48 45 42 41 38 38 37 35 33 33 31 28 27 27 29 32 32 33
7 16 6 9 8 21 35 35 32 32 34 37 39 32 42 52 56 54 49 53 48 48 44 41 39 40 42 44 44 44 46 44 42 41 41 42 41 40 38 38 36 34 34 32 28 29 31 30 28 27 28 30 30 30
13 13 9 3 7 27 24 22 17 18 28 28 29 29 36 26 26 39 43 26 22 24 27 29 34 38 34 35 37 40 42 45 46 44 42 39 39 40 41 38 37 37 37 35 33 33 34 31 27 27 28 28 26 24
7 9 10 5 4 5 9 5 6 7 13 16 26 31 30 19 12 25 27 24 21 24 25 27 29 30 27 30 36 40 41 41 42 40 40 38 36 34 32 30 28 29 29 29 30 30 28 25 26 25 24 23 22 21

GFSWCAN_850_spd_123.txt.gz
Wind_Speed
28 27 24 22 21 20 16 13 10 7 6 5 4 5 6 7 8 8 6 8 6 3 3 6 5 3 3 4 3 6 4 1 2 2 3 3 3 4 2 4 5 6 7 4 4 2 5 6 4 1 1 10 19 22
29 30 28 25 23 21 18 15 12 10 7 5 4 4 5 6 8 8 8 10 9 4 2 4 7 7 6 4 3 6 1 3 5 3 1 2 2 1 4 2 1 3 5 4 8 5 2 6 3 5 10 20 18 21
33 33 31 28 24 22 19 17 14 12 10 7 6 5 6 7 7 8 9 10 8 2 2 3 5 9 9 9 8 3 3 5 5 5 6 2 3 3 3 5 2 4 5 2 1 2 5 15 4 9 21 19 22 24
34 33 35 31 26 23 21 18 16 14 12 9 7 6 6 7 7 8 8 8 5 3 1 1 3 4 5 8 11 13 7 3 3 5 3 3 3 5 3 2 3 2 6 3 4 5 8 5 13 26 21 23 25 25
36 33 37 33 29 25 22 19 17 16 13 10 8 6 7 8 7 6 8 2 3 5 1 2 4 6 7 8 8 7 9 9 5 2 1 3 3 3 1 0 4 7 4 4 3 2 2 18 22 17 23 27 25 25
40 36 38 38 31 27 23 21 18 17 15 12 9 8 7 7 7 5 2 1 1 10 3 1 2 2 2 2 4 6 9 8 6 4 3 3 3 3 3 3 3 6 4 2 4 10 12 11 8 14 18 20 23 23
42 39 38 39 34 31 27 22 18 16 15 12 10 9 7 7 5 3 3 3 8 9 3 2 1 2 3 3 3 5 9 5 5 4 3 2 3 4 2 3 3 7 4 4 2 6 3 10 12 16 18 20 21 21
44 40 39 41 36 33 30 25 20 16 15 13 11 10 8 6 7 8 9 9 6 4 4 1 3 1 5 3 2 3 4 5 4 3 3 3 2 2 4 7 7 2 3 9 5 4 6 9 13 18 21 24 25 26
45 39 41 42 37 34 32 27 24 20 16 13 11 8 5 5 4 3 3 3 4 6 3 3 3 3 5 3 3 3 3 1 1 1 2 2 2 5 5 7 6 3 6 5 5 5 8 14 17 19 22 25 27 29
40 39 42 41 38 35 35 30 27 22 18 15 13 6 4 4 4 4 2 1 1 3 4 3 3 3 4 4 2 3 1 1 1 1 2 2 4 13 12 8 2 6 6 4 6 10 14 17 19 20 20 20 23 26
40 41 41 41 39 37 35 34 30 25 20 17 9 7 6 6 3 1 1 0 1 2 4 3 7 3 6 3 3 3 2 1 1 3 2 2 3 3 7 13 10 7 7 7 10 12 14 18 22 25 27 26 26 27
46 42 42 41 39 41 40 33 34 31 19 14 11 10 8 5 3 3 2 1 3 3 4 4 5 6 3 3 3 2 2 1 4 2 2 3 3 5 11 11 9 6 7 9 13 16 19 22 24 26 28 30 31 31
42 41 39 35 35 36 41 36 33 28 24 19 7 7 6 3 2 6 7 4 3 5 6 5 3 5 3 3 4 2 3 3 2 2 3 4 1 9 13 9 4 10 8 11 15 22 25 27 27 27 29 29 32 34
42 38 34 32 42 35 35 37 36 30 19 6 8 5 5 4 4 4 4 4 4 3 7 8 4 3 3 3 3 3 1 2 3 3 5 3 8 10 3 7 11 14 18 19 25 26 27 28 27 27 29 31 34 38
37 40 41 40 39 37 34 33 32 29 6 6 6 4 4 4 4 8 7 4 3 4 9 6 3 3 1 2 2 2 3 3 4 4 3 14 5 8 10 15 21 24 27 30 29 29 31 32 33 36 36 36 37 39
36 34 29 31 28 31 31 31 25 13 4 4 4 4 4 4 4 5 6 3 3 9 6 2 3 2 2 1 4 5 3 5 4 3 12 4 16 22 22 28 31 32 32 31 31 31 34 35 37 39 41 41 41 38
33 27 28 29 29 27 25 21 12 5 4 5 2 5 8 5 4 4 7 6 10 9 2 3 2 6 3 2 3 3 5 3 2 5 10 23 25 26 34 35 36 36 34 33 33 35 36 37 39 40 42 43 44 42
26 27 26 24 24 22 17 9 5 6 3 4 5 8 13 5 5 5 6 8 8 7 6 3 3 2 4 5 4 3 5 9 17 22 27 32 35 37 35 36 37 35 34 35 36 38 38 39 41 42 43 44 44 44
20 25 23 25 25 15 6 8 3 4 3 4 6 7 7 7 10 7 6 6 5 4 0 1 1 3 4 5 4 18 23 26 30 36 42 40 39 38 36 35 36 37 38 38 39 39 39 39 41 40 41 43 42 41
21 22 22 23 14 4 4 4 5 5 4 5 6 7 5 3 5 6 7 7 6 4 3 3 6 13 18 30 33 38 40 40 37 36 38 38 36 31 35 37 39 40 40 39 38 38 41 42 41 36 37 38 36 40
23 21 20 18 6 4 3 5 4 4 5 4 5 5 3 6 6 5 6 8 6 7 7 17 29 32 32 35 36 39 43 39 35 33 36 38 41 35 38 42 42 40 38 38 38 40 39 39 35 34 37 39 38 38
21 20 16 12 2 3 3 4 5 7 5 5 6 4 2 2 4 6 8 10 7 14 20 26 26 29 33 36 36 37 39 40 41 43 45 44 38 43 39 39 38 40 40 40 39 37 34 32 33 37 40 42 39 40
20 16 7 6 3 3 3 8 4 3 2 5 6 2 3 4 5 9 5 8 11 21 22 26 30 33 36 39 41 42 42 44 45 43 41 41 41 40 40 40 38 37 38 38 37 38 39 39 38 41 42 41 39 40
16 11 6 8 7 5 7 6 6 6 5 3 4 3 4 7 9 6 4 7 25 24 27 32 34 38 39 38 37 36 36 36 39 39 39 43 41 42 42 40 39 39 40 40 39 38 39 41 41 39 40 43 40 38
8 10 8 5 8 7 5 4 4 4 4 5 4 4 3 8 3 4 4 13 25 32 34 32 31 31 35 37 38 39 40 42 41 41 45 45 44 45 47 47 46 46 43 41 41 40 41 38 39 40 41 42 38 40
7 11 13 15 8 8 7 7 8 7 4 6 7 3 6 3 2 6 5 18 24 26 27 30 33 37 38 40 44 45 47 48 39 38 50 52 48 43 45 44 46 50 47 45 42 39 39 40 42 44 43 44 39 36
7 5 11 9 12 8 4 4 6 4 6 7 4 5 4 4 7 7 23 28 29 29 33 36 37 40 44 47 47 48 48 46 45 47 50 49 49 48 46 46 46 52 48 46 40 39 39 41 44 46 45 45 39 33
4 9 8 15 8 9 5 4 6 7 5 9 12 5 8 10 7 28 30 31 35 40 43 46 48 48 48 51 49 46 47 46 46 45 46 48 48 49 48 49 51 51 50 48 46 44 43 43 42 38 37 38 36 31
5 11 12 4 3 4 9 7 7 11 11 17 7 5 7 26 36 35 40 45 48 48 49 51 55 46 43 43 42 42 43 41 39 41 43 46 47 45 38 38 38 37 36 35 34 33 34 33 32 32 32 34 34 32
7 18 5 7 6 7 11 16 17 33 31 28 27 28 32 39 45 47 47 48 50 52 52 50 47 43 40 36 36 39 39 37 35 35 40 41 44 42 38 37 36 33 33 34 33 31 29 29 30 30 29 30 29 30
11 17 6 6 6 22 33 30 31 29 25 28 30 28 38 42 48 50 44 42 40 41 40 39 36 27 28 27 29 37 43 36 33 34 37 41 43 45 45 42 38 35 35 33 31 29 26 26 25 25 27 29 29 29
14 14 9 6 7 16 17 9 8 10 20 25 28 30 29 20 18 38 34 27 27 29 31 28 29 30 26 26 27 29 30 33 35 37 37 37 39 40 41 38 33 32 32 32 29 27 27 27 26 27 29 27 27 26
5 6 6 4 4 4 8 8 6 5 8 10 19 29 28 13 11 25 30 28 24 25 28 31 32 34 29 29 27 31 29 30 34 36 37 36 34 32 31 32 32 32 30 28 27 25 25 24 24 24 24 24 25 25

GFSWCAN_850_spd_126.txt.gz
Wind_Speed
28 27 25 26 25 22 21 19 15 12 9 7 6 4 4 3 4 5 3 6 5 2 3 6 5 3 4 4 3 6 4 3 2 4 3 3 3 3 2 2 4 6 7 4 3 3 4 5 6 2 4 5 11 14
31 29 28 28 27 24 23 22 18 15 12 9 7 6 5 5 5 4 4 6 6 3 3 5 8 7 7 5 4 10 1 3 4 2 2 2 2 3 3 2 2 3 3 3 6 2 1 4 6 3 8 10 10 13
34 31 28 27 30 26 25 23 20 18 15 12 10 7 6 6 6 6 5 6 5 2 2 4 6 9 9 9 8 4 4 5 4 4 3 1 4 3 4 5 3 5 5 3 2 6 8 4 4 6 10 8 14 15
37 33 31 27 32 29 26 24 21 20 18 15 12 9 6 6 6 6 6 5 2 2 1 2 4 4 6 10 11 12 5 5 5 5 2 2 2 3 2 2 3 0 10 5 5 4 2 4 3 10 10 12 15 16
33 38 34 30 33 33 28 26 23 21 19 17 13 10 8 6 5 5 5 3 1 1 1 2 4 7 7 7 7 8 10 9 5 3 2 3 2 3 2 1 4 8 4 4 3 5 1 1 5 5 9 12 14 17
36 39 37 33 31 37 31 28 25 22 20 17 14 12 9 7 5 3 2 4 4 5 1 1 2 2 2 3 5 8 9 9 5 3 3 3 4 2 3 3 3 10 9 5 1 3 4 3 3 8 10 12 13 14
41 39 41 37 33 36 37 31 26 22 20 18 15 13 11 9 6 5 3 4 4 6 1 0 0 1 3 3 3 4 7 4 4 3 3 2 3 4 2 4 3 9 7 5 4 3 5 4 3 9 12 13 14 15
46 41 44 42 37 35 40 32 28 23 20 18 16 13 11 9 8 10 10 8 5 4 4 2 1 2 5 2 1 3 4 4 4 2 2 2 2 2 4 5 9 4 6 10 6 6 6 5 7 10 13 16 18 20
51 43 47 45 41 37 41 33 32 26 21 20 16 12 9 7 6 6 5 4 6 6 3 2 3 2 7 3 2 2 3 1 2 3 3 3 2 6 6 8 11 10 10 9 7 6 6 8 10 12 14 15 18 20
52 47 48 47 42 38 43 36 36 30 26 21 19 7 7 6 7 4 3 3 4 5 4 3 4 3 6 5 2 2 0 1 2 0 1 3 4 11 9 9 9 11 11 8 6 5 8 10 14 16 17 19 22 24
51 47 50 47 42 42 44 40 39 35 28 27 11 8 10 10 6 3 3 2 2 3 6 5 7 4 6 3 3 4 2 1 2 2 2 3 4 4 9 15 12 13 10 8 5 4 7 12 16 20 22 24 26 27
49 51 45 48 45 46 46 41 38 44 31 24 12 12 11 5 3 1 2 2 4 4 6 7 6 6 4 4 3 3 2 1 3 3 3 4 2 5 14 19 15 9 5 2 2 7 13 15 15 18 20 23 25 28
48 46 45 46 46 46 44 43 34 39 33 22 8 8 8 4 3 6 7 4 4 9 9 7 4 6 4 3 4 2 3 3 1 2 4 4 3 13 17 15 6 3 3 7 9 14 17 18 18 20 24 27 29 32
47 43 46 44 45 44 42 36 47 40 22 8 9 5 4 4 5 5 3 3 5 9 16 13 6 3 3 2 3 3 2 1 2 4 5 1 11 17 9 3 4 8 11 15 18 18 19 20 22 24 27 29 32 35
47 42 45 46 45 41 40 46 47 42 8 7 8 6 5 4 3 8 8 9 8 14 18 9 6 3 2 3 3 3 3 4 5 4 2 9 17 6 1 4 10 16 19 21 21 22 22 23 26 31 32 34 36 38
42 39 45 49 44 50 54 52 47 18 6 6 5 5 4 6 4 7 9 8 11 17 11 5 4 3 2 3 4 6 4 5 2 3 10 11 6 6 14 19 24 25 26 26 26 25 25 27 31 35 37 37 37 38
41 33 42 47 52 54 53 41 17 5 6 5 3 5 9 6 10 9 11 10 16 13 2 3 4 3 4 2 3 4 4 1 0 6 8 11 19 21 28 30 29 29 28 28 29 30 31 32 34 36 39 38 38 38
44 39 46 51 52 43 31 12 7 5 3 4 5 11 9 9 13 11 9 16 12 7 7 3 6 3 4 5 3 3 5 5 12 17 21 27 28 32 34 35 33 31 30 31 32 33 34 36 36 38 39 40 39 36
34 33 38 38 35 21 6 5 5 5 3 7 8 13 9 7 8 11 14 15 11 9 9 4 2 2 3 6 9 12 17 20 27 31 31 33 32 30 29 29 30 32 33 34 35 37 38 38 38 37 35 32 32 32
28 28 26 24 16 8 6 5 5 6 4 6 9 11 9 6 12 12 12 13 12 6 3 3 5 8 14 20 21 25 27 28 28 28 28 28 30 32 34 34 35 36 38 39 40 39 39 39 38 35 28 30 32 34
24 21 17 15 15 10 7 5 5 5 8 5 11 11 5 10 8 9 10 14 7 5 6 13 17 17 19 21 23 26 29 29 29 28 32 33 36 32 34 34 38 37 36 37 37 36 33 35 34 33 32 34 38 37
24 18 15 8 5 6 6 5 8 9 5 8 9 5 4 4 4 6 9 7 6 11 15 17 17 18 23 26 25 26 29 31 32 34 35 37 40 37 36 35 34 36 36 36 36 35 34 34 33 32 33 36 38 41
19 14 8 3 3 4 4 8 3 3 3 4 5 3 1 2 4 8 4 8 12 23 20 18 20 22 25 28 29 30 30 32 33 31 31 35 37 38 40 41 40 40 40 42 40 39 41 41 41 41 40 40 40 43
12 5 3 3 3 4 7 3 4 5 5 3 3 3 3 5 6 2 3 6 13 17 19 22 22 25 27 29 30 29 30 33 35 36 39 42 42 45 44 43 45 46 47 43 41 44 43 44 43 41 40 39 38 41
4 3 4 2 4 5 3 4 3 2 3 3 3 3 3 8 3 4 4 7 15 23 24 21 23 24 27 30 32 35 36 38 39 40 44 45 37 38 43 45 44 49 41 35 41 41 42 40 40 40 40 39 39 41
5 9 11 11 5 5 6 5 6 5 4 5 5 2 5 3 3 6 4 12 20 20 19 20 22 25 29 33 37 42 44 43 39 39 48 45 41 33 39 43 45 55 35 34 38 41 43 43 42 42 43 42 40 35
6 6 8 7 9 8 4 4 6 4 5 7 4 6 3 4 7 7 13 17 21 22 22 22 27 31 37 42 44 43 46 46 43 43 42 43 42 39 39 45 50 50 46 42 40 41 41 42 43 43 41 42 39 35
5 10 7 13 6 7 5 3 6 8 5 8 13 6 10 9 7 10 16 26 30 30 33 36 41 47 49 52 51 47 44 37 33 34 36 39 39 36 33 36 38 37 36 34 33 34 36 37 37 37 37 37 35 30
4 11 13 4 4 4 9 7 8 11 9 16 6 5 7 15 24 33 35 34 35 38 44 50 52 51 49 49 46 40 34 31 31 33 35 39 41 37 35 36 39 40 37 36 34 32 31 30 30 31 31 31 30 29
10 18 5 6 6 6 12 16 10 13 16 20 22 21 27 35 41 39 40 44 47 50 52 52 50 45 44 41 38 32 27 28 28 29 31 35 38 39 39 40 42 43 41 39 37 34 29 27 26 25 27 29 29 29
11 14 6 8 7 14 24 21 21 22 18 22 27 26 35 37 43 42 45 47 45 43 40 38 36 32 31 29 29 31 34 27 26 25 28 30 33 37 40 43 43 42 40 39 35 32 29 27 26 25 24 25 24 23
12 12 9 4 5 12 13 9 8 9 16 24 28 31 33 18 15 40 45 29 29 27 28 25 25 23 23 24 25 27 29 32 33 30 28 29 34 36 39 40 42 38 31 29 29 29 27 26 25 24 24 24 24 24
6 7 7 3 3 4 9 9 4 5 6 7 16 27 29 18 12 27 26 28 24 25 26 26 24 22 26 28 32 33 32 36 33 30 35 35 33 33 36 38 38 30 27 27 28 29 29 27 27 26 24 23 24 22

GFSWCAN_850_spd_129.txt.gz
Wind_Speed
27 24 20 21 19 22 20 19 17 16 13 11 10 8 7 6 6 5 5 5 4 2 4 5 4 2 2 2 2 6 4 4 5 4 2 2 3 3 2 2 5 8 7 4 4 5 5 9 5 3 4 2 5 8
28 27 26 23 22 21 25 22 19 18 15 13 11 10 9 8 7 7 7 6 6 3 4 5 7 8 7 4 2 6 3 1 0 3 1 1 3 2 3 2 3 4 3 1 6 0 6 8 7 6 3 4 4 8
31 28 28 27 24 23 26 24 21 19 17 15 13 11 10 9 8 8 8 8 6 2 3 3 5 8 8 9 8 3 2 3 0 3 2 2 5 1 3 4 3 5 4 3 1 4 6 5 3 3 3 2 5 7
30 30 27 29 28 25 24 26 23 20 18 17 15 13 12 10 9 8 8 7 4 3 3 3 5 6 6 10 10 10 4 2 2 2 2 2 3 2 1 3 3 3 8 6 4 5 4 5 8 1 1 2 3 5
28 29 29 27 30 28 24 29 25 22 19 18 16 14 13 12 10 9 9 7 4 3 3 0 4 7 7 7 8 9 9 6 2 1 2 2 1 2 1 2 5 10 6 5 2 8 2 10 5 3 3 3 4 6
30 33 31 30 29 31 26 31 28 24 20 18 17 15 14 12 10 7 4 6 6 1 1 2 3 2 2 4 7 8 8 8 4 3 3 3 2 2 3 3 5 10 5 2 4 7 6 8 8 4 3 2 4 5
29 32 37 34 30 34 30 33 31 25 22 19 17 16 14 13 10 6 4 3 5 4 2 2 2 2 5 4 3 2 6 4 5 4 5 2 2 3 3 4 0 7 8 7 7 6 6 8 5 3 3 4 5 8
29 32 34 39 36 34 34 33 33 28 24 19 18 16 15 12 11 12 14 12 10 5 4 1 0 2 6 2 2 4 3 3 4 2 2 4 4 4 5 10 3 5 7 5 5 8 10 9 6 3 3 6 8 10
30 33 35 41 40 35 38 34 36 35 28 23 20 16 12 10 7 9 10 9 10 7 2 2 3 2 8 3 2 2 3 3 2 3 3 4 3 6 8 8 12 10 9 12 12 10 7 5 4 6 9 12 15 18
33 35 35 40 44 39 42 37 38 38 34 28 23 13 8 8 11 5 3 3 4 5 5 4 3 3 6 5 3 4 1 1 2 2 3 3 4 14 6 4 7 10 10 14 13 8 5 4 6 9 12 14 16 18
36 37 37 41 46 46 42 42 43 36 36 29 15 9 11 12 10 5 4 3 4 3 7 4 9 4 6 3 3 3 2 2 2 2 2 3 4 3 6 12 8 14 14 11 9 6 4 7 10 12 14 16 18 21
38 38 39 43 49 49 45 46 46 41 40 27 20 17 16 8 4 3 4 4 5 4 6 6 6 3 4 4 3 4 3 1 3 3 2 3 1 1 7 15 16 15 12 8 4 2 7 11 13 16 19 21 22 24
43 40 40 47 53 53 51 51 49 43 39 27 10 10 9 6 5 7 9 4 4 8 8 7 4 5 3 3 3 2 5 3 2 2 4 4 2 7 12 17 15 10 5 1 3 7 10 14 16 17 21 23 25 28
45 43 43 51 54 56 53 51 52 51 29 10 10 8 6 5 7 5 4 4 5 10 17 12 6 2 2 3 3 4 2 2 2 4 4 0 8 11 10 8 6 3 7 11 14 15 17 18 19 21 24 26 29 32
45 48 51 56 55 58 57 54 54 49 16 9 9 7 8 6 5 9 13 13 11 19 21 10 5 3 2 2 2 3 4 4 4 3 1 3 13 10 6 1 8 15 17 19 21 22 23 23 24 27 28 30 32 35
39 39 52 54 56 58 57 63 50 29 10 9 6 6 7 9 6 8 11 12 24 25 14 5 3 3 3 2 5 5 4 5 2 2 3 13 11 2 9 13 19 24 24 24 24 24 24 26 28 31 33 34 36 36
48 27 59 57 60 56 60 49 23 7 7 7 5 6 9 9 13 13 13 13 26 23 3 4 6 4 3 3 4 4 4 1 1 4 14 6 9 16 21 24 28 29 29 27 28 29 30 31 32 34 37 37 36 34
35 29 53 57 56 64 37 11 8 6 3 5 6 11 7 9 18 18 13 21 17 10 9 3 7 4 4 5 3 3 9 8 8 6 9 13 18 23 24 26 26 27 28 30 31 32 33 35 35 36 37 39 36 34
49 52 54 60 61 38 8 5 6 5 4 7 14 17 13 15 13 17 16 21 13 12 8 7 3 3 3 6 7 8 8 7 11 14 17 20 23 25 27 27 28 29 30 32 33 35 35 34 35 36 36 34 33 32
37 39 44 41 40 10 7 6 7 8 4 4 11 11 11 10 15 17 23 18 14 7 3 3 4 6 7 7 5 7 9 13 14 15 18 18 19 20 25 28 31 32 31 31 31 31 33 35 34 34 32 32 33 36
21 29 27 32 32 15 8 5 6 6 8 6 14 7 6 13 9 8 8 13 6 5 5 12 14 13 9 8 10 12 15 16 18 20 22 23 29 29 31 31 30 31 31 33 37 39 37 38 40 38 38 39 40 38
24 26 26 21 12 8 8 7 9 8 6 8 9 6 6 5 6 5 10 5 6 10 11 13 14 11 12 13 13 15 17 19 23 26 28 29 31 31 32 34 35 36 38 42 42 36 39 40 40 40 36 37 38 40
18 16 11 8 7 6 5 6 5 4 4 4 4 4 2 3 5 11 3 7 10 19 21 21 18 17 18 19 22 23 22 24 27 27 28 31 33 35 38 40 42 38 38 38 34 35 37 41 38 36 37 38 38 38
7 6 5 5 6 5 4 3 5 5 5 2 2 3 2 4 6 3 2 6 16 15 16 20 22 20 21 24 27 27 25 25 28 29 32 35 37 41 37 38 39 38 35 33 35 41 41 39 36 36 36 36 37 36
3 5 4 6 5 5 3 3 3 3 3 3 3 2 2 4 2 4 3 8 16 20 20 22 21 22 24 25 27 29 29 31 33 33 40 41 32 30 37 41 40 38 32 34 39 40 41 38 35 35 36 35 36 36
3 3 3 2 2 3 3 4 4 3 3 3 2 4 3 2 2 5 4 9 17 17 18 18 17 18 22 25 27 33 38 38 32 33 46 46 34 28 32 37 42 47 34 30 33 38 41 39 38 38 39 38 35 34
1 3 3 5 7 8 5 5 5 3 3 5 4 5 3 4 6 6 11 14 16 13 9 14 18 21 23 29 36 40 41 42 41 44 45 44 40 35 35 37 41 38 33 31 31 33 37 39 39 39 38 38 36 34
1 6 6 9 5 5 4 3 5 7 4 6 11 6 8 9 6 6 9 8 8 14 22 26 25 28 35 40 44 46 47 43 40 39 39 40 37 32 29 28 30 28 29 32 35 36 36 37 37 36 37 37 35 33
3 9 11 3 4 5 8 5 6 9 10 16 6 5 6 10 23 24 27 25 26 31 35 34 34 38 40 44 45 43 35 29 27 30 32 36 36 36 33 28 27 29 33 37 40 38 40 37 34 34 34 35 33 32
7 14 4 6 6 6 12 15 9 12 14 19 20 15 21 30 35 32 33 36 38 40 38 37 38 41 39 35 32 29 24 23 22 24 29 33 35 37 33 29 29 32 34 36 37 43 38 32 30 29 28 27 26 27
6 13 5 6 5 7 14 16 18 14 14 16 20 23 30 26 37 39 39 38 34 31 34 37 34 29 27 25 26 27 26 22 24 28 32 35 35 35 35 32 31 34 36 35 36 39 32 28 30 29 28 28 27 25
9 8 6 4 3 5 5 5 5 7 8 11 15 17 16 9 9 26 38 29 32 33 30 27 26 24 22 23 18 20 27 32 33 35 36 36 37 35 32 30 33 35 34 35 35 36 33 27 27 29 29 28 27 25
5 5 3 3 3 2 5 6 3 3 5 5 9 14 15 9 10 26 29 29 22 21 21 19 17 16 17 17 20 24 28 33 36 36 34 38 38 33 32 33 32 31 32 34 33 36 37 31 24 25 26 26 26 23

GFSWCAN_850_spd_132.txt.gz
Wind_Speed
26 24 22 19 16 17 16 19 16 15 14 10 8 7 7 6 6 7 7 6 6 2 6 4 4 2 1 2 1 7 4 1 2 1 1 1 1 3 1 3 5 6 6 4 3 4 7 14 5 5 7 10 6 2
33 23 25 23 18 17 17 18 19 17 16 11 11 9 7 6 7 7 7 7 7 5 5 6 6 8 7 4 4 9 0 2 2 2 0 1 1 2 2 2 4 3 3 3 7 4 3 13 10 10 8 7 4 2
24 30 27 25 23 21 17 17 19 20 17 14 12 11 9 7 7 7 8 8 8 4 6 4 5 7 9 9 8 4 4 5 2 2 2 1 2 2 2 4 4 4 2 2 3 3 9 11 10 7 3 3 2 1
16 20 30 27 23 24 22 19 16 21 19 15 12 12 11 9 7 7 8 7 5 3 3 2 5 5 6 10 10 9 4 4 3 4 1 1 2 1 2 2 2 3 5 4 3 4 7 8 9 7 4 4 3 2
21 22 21 29 29 22 23 22 18 20 20 16 14 13 12 10 8 7 8 7 5 3 2 4 6 6 6 5 7 9 8 5 2 1 1 3 1 1 2 1 4 10 6 5 5 10 7 11 11 7 6 4 3 2
15 22 25 23 29 28 21 23 21 22 21 17 15 14 14 11 8 5 3 2 5 1 2 2 3 3 1 4 5 5 8 8 5 3 3 2 2 1 2 4 5 16 7 5 6 8 9 15 11 10 9 6 3 2
16 18 22 26 27 29 27 24 26 24 23 20 16 15 14 12 10 6 2 1 3 2 1 2 1 2 2 3 3 2 7 4 5 3 3 1 2 3 2 3 2 9 8 8 8 12 11 13 9 10 8 6 4 4
19 19 20 24 28 31 28 26 27 25 25 22 19 17 14 13 11 11 12 11 8 5 4 1 2 1 6 2 1 3 2 4 4 2 2 3 3 3 5 10 3 9 11 10 11 9 9 13 11 8 7 5 3 2
22 21 22 22 26 30 34 29 25 29 27 23 23 18 13 11 6 9 9 9 8 8 3 4 3 2 8 3 2 3 3 1 2 2 2 3 3 6 6 7 11 13 12 12 10 11 13 12 10 6 3 3 6 9
27 24 24 25 24 27 31 32 29 30 29 26 24 13 7 9 13 6 4 4 5 6 7 5 5 2 6 5 3 3 1 1 1 2 4 2 4 17 10 8 4 11 10 12 18 13 12 9 5 1 2 5 9 13
29 28 26 27 27 27 29 35 34 32 30 35 12 9 13 14 11 7 4 5 5 3 8 5 11 4 7 3 3 5 2 1 2 2 3 2 3 0 3 7 8 11 12 14 9 11 8 3 1 5 7 10 13 16
31 31 30 31 31 27 29 36 42 39 36 35 21 19 16 8 5 4 4 3 5 6 11 9 7 5 6 5 4 4 2 0 4 4 2 3 3 2 4 9 11 14 15 13 9 4 1 4 7 11 14 16 19 21
32 34 34 33 33 30 31 38 45 45 39 31 12 10 8 8 6 8 10 4 4 11 12 12 4 8 5 3 4 2 3 3 3 2 3 4 3 5 11 16 16 14 11 7 3 3 7 10 12 15 19 21 23 26
34 36 36 38 37 35 34 40 47 54 32 15 11 7 7 5 7 5 5 5 7 14 25 19 9 5 4 3 3 3 2 1 3 4 5 2 11 13 14 14 13 7 4 5 8 11 14 17 20 22 24 24 26 29
38 38 39 41 40 38 35 40 59 60 21 10 9 8 8 8 4 12 16 17 13 28 28 14 8 5 2 3 2 3 3 4 4 4 2 8 16 15 12 8 2 6 11 14 16 19 22 23 24 25 24 26 29 33
42 40 46 44 42 41 39 39 57 44 16 13 8 6 8 10 6 12 17 17 26 29 19 6 4 4 3 3 4 5 4 5 3 2 6 16 17 11 4 4 10 15 19 20 20 21 22 24 26 28 30 32 34 35
41 52 50 43 41 42 42 49 31 11 11 10 5 8 13 13 14 18 20 23 35 24 3 5 6 4 3 3 4 4 4 2 5 7 13 18 7 4 11 17 19 19 20 22 24 25 27 29 31 33 36 36 35 35
36 38 36 33 43 50 50 27 17 7 5 6 7 16 10 13 25 24 16 36 25 11 11 4 8 4 4 5 3 4 8 10 13 18 15 8 10 16 19 19 19 21 22 24 25 26 28 29 30 33 35 36 37 37
19 25 26 45 68 50 8 5 6 5 4 9 19 21 13 18 19 25 30 31 20 18 17 8 3 3 3 5 5 12 15 17 15 11 10 12 15 16 18 19 20 22 24 25 26 29 32 34 35 36 38 39 39 39
39 38 59 69 59 15 6 6 6 6 5 6 13 15 15 13 23 27 31 22 21 14 4 4 4 7 8 9 13 11 9 9 9 9 13 14 15 17 21 22 24 26 27 29 33 37 39 38 38 39 40 41 40 42
31 33 34 35 24 11 8 6 4 6 9 8 16 11 10 18 15 12 13 20 5 6 4 8 11 10 11 10 9 8 8 8 10 11 15 19 19 21 24 25 25 27 31 35 38 38 36 38 40 38 37 40 41 42
19 22 22 15 11 8 8 6 10 9 6 8 7 7 8 5 5 4 13 4 6 6 8 9 10 13 12 12 9 9 9 11 12 14 16 19 22 23 24 26 28 32 35 39 37 36 37 37 38 37 37 39 39 40
14 13 11 11 8 6 4 4 6 5 4 4 4 4 3 4 3 9 2 3 7 14 16 18 15 12 11 12 14 16 16 17 17 18 18 21 24 27 30 32 33 35 38 39 33 35 37 38 39 38 38 38 38 41
11 7 6 6 7 4 4 5 5 5 5 3 3 4 3 4 8 1 2 5 9 9 15 16 17 19 18 19 21 23 22 21 20 19 21 26 30 33 35 38 38 37 36 33 33 34 35 37 36 36 36 39 40 41
5 7 5 5 4 4 3 2 2 3 4 2 4 3 2 5 2 1 3 5 10 15 17 18 18 17 18 20 23 26 25 21 19 23 30 33 36 37 38 40 40 41 38 33 30 30 32 34 36 37 39 40 41 42
7 12 6 4 4 4 3 3 4 3 3 3 4 4 3 2 3 4 3 7 14 14 11 12 15 16 17 17 20 24 24 21 24 30 38 37 37 34 35 37 40 48 38 32 28 30 31 33 35 37 39 40 39 37
4 4 5 5 6 7 5 6 5 4 3 4 3 3 3 3 5 5 6 8 9 6 4 4 3 6 13 19 23 25 27 29 32 34 41 41 41 39 36 37 42 39 32 33 31 27 30 31 35 38 39 41 40 37
4 2 4 3 5 4 4 2 3 4 3 7 9 3 8 8 5 3 5 5 2 5 7 9 13 17 21 26 28 29 31 34 36 33 32 33 33 28 24 25 26 26 28 28 27 27 29 32 35 37 40 43 43 38
3 7 5 4 3 2 3 4 5 6 10 14 5 4 4 8 8 11 14 14 15 17 20 22 27 26 31 31 31 33 32 24 23 24 26 28 29 28 25 28 29 29 27 27 28 30 31 33 34 33 37 36 35 32
4 7 4 3 4 3 4 8 3 7 11 11 7 7 13 21 23 22 23 25 27 27 26 26 28 29 30 31 30 24 21 19 18 19 23 26 29 32 34 36 37 36 36 33 33 35 34 36 37 36 35 33 29 27
5 7 1 3 2 0 5 8 9 6 7 9 15 17 21 23 29 29 28 25 23 22 22 25 27 26 25 21 19 19 21 17 15 18 22 27 32 36 39 40 40 40 38 35 33 35 36 34 35 35 35 31 29 27
5 4 4 1 3 1 0 3 3 5 4 6 8 11 10 8 11 27 29 23 22 24 23 21 20 17 13 14 15 15 16 18 18 20 24 30 33 35 39 42 41 35 33 33 32 31 30 32 32 32 36 32 25 24
2 2 2 1 2 2 5 5 2 3 4 4 7 13 15 8 9 17 21 20 17 20 21 18 16 15 14 16 18 15 15 18 23 28 31 32 34 37 37 34 31 30 27 26 26 30 30 29 32 35 34 27 22 21

GFSWCAN_850_spd_135.txt.gz
Wind_Speed
29 28 22 21 18 15 14 14 15 13 12 10 7 6 5 5 4 5 4 3 4 1 2 2 3 3 2 2 4 6 4 1 2 1 2 3 2 4 2 5 6 6 5 4 2 2 6 7 5 5 4 10 11 7
21 30 27 21 20 18 16 13 13 15 14 11 8 8 7 6 4 4 3 5 4 2 2 5 5 6 5 2 2 8 1 4 6 2 1 2 0 1 3 2 2 3 6 5 8 5 4 12 4 9 10 11 7 6
8 14 28 27 21 21 18 16 14 13 16 13 9 9 8 7 6 5 5 4 4 2 3 2 2 4 7 8 7 4 3 3 3 1 3 2 2 3 3 5 2 3 6 3 1 4 9 15 13 12 10 8 7 7
13 11 14 26 27 23 21 19 17 14 15 15 11 10 10 8 7 6 5 4 2 3 1 1 2 2 4 8 9 8 3 4 2 2 0 1 2 2 3 2 3 4 6 5 4 1 7 13 15 14 10 9 9 9
9 13 15 13 25 25 21 20 20 18 14 16 13 11 11 9 8 7 8 7 6 4 2 2 5 6 6 6 8 9 8 5 2 1 1 2 3 1 1 1 4 9 6 5 5 9 4 10 20 14 12 11 10 9
12 9 13 18 15 22 27 20 20 20 17 18 14 12 11 10 8 5 4 2 5 5 2 1 2 2 1 6 7 7 9 8 3 2 3 3 2 1 1 3 8 14 12 12 5 9 7 12 16 14 13 11 9 7
13 12 9 12 20 19 21 27 21 19 20 20 16 14 11 12 10 7 2 2 3 2 2 1 2 1 4 5 5 5 8 4 5 3 3 2 2 3 2 4 6 7 10 5 8 10 12 17 10 15 12 10 9 8
18 15 13 11 12 21 21 21 24 21 23 21 19 19 14 14 12 12 13 11 7 4 4 2 2 1 6 3 2 4 5 5 5 3 2 2 2 2 4 7 4 4 8 8 11 7 4 11 13 12 12 11 9 6
21 18 16 14 13 14 20 24 21 20 19 22 21 20 19 16 9 10 9 9 9 8 3 4 4 3 9 4 3 4 4 1 3 2 3 4 2 5 7 6 6 13 10 9 9 7 11 13 14 12 10 6 4 2
22 21 20 17 16 14 14 20 23 20 19 25 21 14 7 11 12 7 4 4 6 7 7 5 6 3 10 8 6 5 3 2 2 3 5 3 4 16 15 11 8 11 12 10 15 15 15 15 12 9 5 2 3 6
21 22 22 20 18 17 15 15 20 19 30 30 12 10 11 15 12 7 5 5 6 3 8 7 19 5 10 3 3 6 3 2 1 3 3 3 3 3 3 4 7 12 10 11 9 12 11 9 6 3 2 5 9 12
22 22 23 22 21 19 16 15 15 22 18 31 16 19 17 8 6 4 4 3 6 6 11 9 4 4 6 4 4 4 3 1 3 7 2 3 3 3 5 8 10 12 14 14 13 12 8 3 1 5 8 11 14 17
22 24 25 24 22 21 18 15 16 20 22 28 13 11 10 7 5 8 9 4 3 12 15 13 4 6 5 3 4 2 4 3 7 2 4 4 2 4 13 14 16 16 15 12 8 4 1 3 6 10 14 16 19 23
24 25 24 24 23 22 20 17 15 21 22 12 10 7 7 5 7 6 6 7 9 15 28 25 9 5 4 3 3 3 2 3 3 4 5 3 11 14 17 17 18 13 9 5 3 4 6 9 12 14 16 19 24 28
23 25 26 27 25 24 22 21 19 27 10 9 8 7 8 9 6 12 16 18 13 31 35 16 8 5 2 3 2 3 1 4 5 5 3 11 18 20 21 18 11 5 3 5 8 10 13 16 18 20 21 23 26 30
25 29 34 31 30 28 23 21 19 24 10 7 9 5 5 8 5 14 19 13 27 34 22 8 4 3 3 4 4 7 5 6 4 3 11 22 23 22 19 11 3 4 7 11 13 14 16 18 20 23 24 26 28 29
31 37 34 32 29 30 26 26 21 14 9 6 6 17 16 10 19 16 23 21 39 34 4 6 6 7 5 4 4 5 6 3 13 15 18 26 26 21 12 5 6 10 12 13 14 16 18 20 22 25 29 29 30 30
36 36 35 35 24 20 27 34 14 11 9 9 6 19 25 9 23 25 18 37 27 17 14 6 10 4 6 7 4 4 7 12 15 16 22 25 19 11 7 9 10 11 13 14 15 17 20 23 25 28 30 31 32 33
31 35 41 44 29 35 19 19 18 9 8 6 12 20 22 13 23 30 32 41 16 23 18 9 4 4 4 7 7 18 22 23 24 22 23 19 12 10 8 9 10 11 13 15 17 22 25 26 27 31 32 32 32 35
29 36 39 33 53 16 8 6 18 10 6 7 11 15 14 12 23 28 34 32 28 16 4 3 4 7 8 12 19 26 28 24 25 22 17 15 11 9 7 8 11 13 16 20 23 26 28 29 31 32 30 30 32 35
11 21 23 53 32 11 8 9 7 9 10 6 17 13 9 20 20 18 20 28 13 9 2 8 11 10 10 18 18 20 23 24 23 16 9 8 7 8 8 9 12 15 19 23 28 31 30 30 32 30 28 30 31 33
8 14 11 17 8 7 8 5 10 12 7 9 5 6 8 5 6 10 17 7 10 8 9 12 17 17 16 21 20 17 14 13 12 12 11 10 10 10 11 13 17 22 24 29 32 32 30 30 29 28 29 32 33 35
4 6 9 9 7 5 6 7 4 4 4 4 6 3 2 3 4 13 3 8 5 13 15 15 17 17 19 17 17 17 17 15 15 14 12 12 13 13 16 19 23 28 33 35 32 29 31 30 29 28 30 31 32 36
8 5 5 5 5 3 6 3 4 5 6 3 2 4 3 3 4 3 2 4 6 14 21 19 19 17 16 17 21 21 18 16 17 16 14 14 15 19 21 25 28 31 35 36 32 33 31 31 27 28 29 30 32 35
4 6 4 4 4 3 3 2 2 2 3 2 4 2 2 3 2 1 1 2 11 16 16 19 18 16 17 18 19 18 16 15 15 16 12 14 20 24 28 30 32 34 37 35 33 30 30 27 26 29 30 31 33 37
5 8 4 2 2 2 2 3 3 3 2 4 3 3 2 2 2 3 3 8 13 15 16 16 17 16 16 15 14 11 6 7 11 16 20 21 23 27 31 32 35 31 27 28 29 30 30 30 31 33 33 32 33 37
5 5 7 7 5 5 5 6 4 2 3 4 4 4 3 2 4 3 5 7 8 10 8 8 8 10 9 9 8 9 11 14 17 20 24 27 29 29 30 29 25 20 18 21 24 27 31 32 34 35 35 34 35 38
4 5 3 4 5 4 4 2 1 2 2 5 7 3 7 7 4 5 14 15 11 7 7 7 7 9 12 15 17 19 20 21 20 22 27 29 24 22 17 14 16 19 22 26 28 30 32 34 35 35 35 36 38 36
5 4 3 4 4 5 3 2 2 1 5 12 4 3 4 4 9 10 8 3 2 5 8 13 16 17 20 21 23 25 24 22 22 22 21 22 23 20 14 17 22 26 29 31 33 32 33 34 35 34 36 36 35 35
2 3 3 3 3 2 5 2 3 4 4 3 2 1 1 3 4 6 9 9 8 9 9 12 15 18 20 19 18 17 17 17 14 16 18 19 18 17 20 24 27 30 32 35 38 40 37 32 30 30 31 33 33 32
3 2 3 4 1 2 2 1 2 2 2 1 4 5 9 10 18 17 10 9 9 8 9 9 8 7 10 10 10 13 16 12 11 12 13 16 18 22 26 29 32 34 36 37 36 33 30 26 25 25 26 30 32 29
4 5 2 2 2 1 1 2 2 2 2 3 4 5 4 4 5 6 4 5 8 7 5 6 8 7 7 8 8 9 12 15 15 14 14 18 24 28 31 33 35 36 37 36 31 26 23 22 22 25 30 31 31 32
1 1 1 2 3 3 2 1 4 3 2 2 2 2 4 4 6 5 7 8 4 6 6 5 6 6 7 8 10 13 15 16 16 18 21 26 30 33 35 37 36 35 33 28 25 24 23 24 25 27 29 31 33 32

GFSWCAN_850_spd_138.txt.gz
Wind_Speed
15 19 25 26 22 19 17 16 17 15 12 10 8 6 5 4 3 2 1 3 3 2 2 2 3 4 3 4 4 6 4 1 2 2 3 3 3 4 2 4 6 6 6 4 2 3 6 9 4 6 3 9 12 16
6 13 17 32 22 21 18 15 14 18 14 12 9 7 5 5 4 3 1 3 4 3 2 4 5 5 6 4 5 9 1 4 5 3 1 2 2 1 3 2 2 3 6 4 8 5 3 16 1 5 10 15 13 12
7 7 15 25 30 21 21 19 16 15 17 15 10 7 6 5 6 4 3 3 4 2 4 5 4 5 7 7 7 5 4 4 3 2 4 2 2 3 3 4 2 4 6 3 1 1 6 10 11 10 11 13 12 9
8 8 8 11 22 27 21 21 20 18 16 17 14 10 6 5 7 5 4 3 3 2 1 2 3 4 4 8 9 8 4 5 4 3 2 2 2 4 3 2 3 4 7 4 5 5 2 11 17 15 14 12 11 10
9 7 9 11 11 18 25 21 21 20 18 15 15 12 8 7 7 6 6 6 6 4 2 3 5 6 7 6 8 9 8 6 4 2 2 3 2 1 1 1 4 8 6 5 5 6 3 4 18 17 15 12 10 10
12 9 7 10 13 13 17 24 23 23 22 18 17 14 10 9 6 4 3 3 6 7 1 1 3 2 2 5 5 8 9 7 4 3 3 3 2 3 2 3 8 11 13 10 3 3 12 5 11 16 13 11 11 10
13 12 10 7 9 14 14 16 23 21 22 22 19 16 13 10 8 6 3 3 6 5 2 2 2 1 3 4 4 5 7 4 4 3 3 2 3 4 2 4 5 6 9 10 8 8 7 13 9 14 12 12 11 11
14 13 13 11 8 9 16 16 15 23 20 24 21 20 15 11 11 11 12 8 4 3 3 2 2 2 6 3 2 4 4 5 3 2 2 3 2 2 4 10 8 3 7 9 10 7 5 11 9 14 13 13 13 11
18 15 16 14 11 10 10 16 22 14 22 24 22 20 20 19 12 11 9 9 11 8 3 4 4 3 9 5 3 4 3 1 2 2 3 4 2 5 6 7 7 10 10 7 10 8 7 11 14 15 14 12 10 8
15 19 16 16 14 12 11 10 16 19 12 22 24 14 7 10 12 12 5 4 7 8 7 6 7 3 10 7 4 4 2 2 1 3 4 2 4 21 18 12 7 3 13 8 9 10 13 14 14 13 10 8 5 4
14 15 18 16 16 14 12 11 10 16 12 24 13 9 13 20 12 8 6 5 5 3 9 8 18 6 10 3 3 6 3 2 0 3 3 2 4 4 2 4 7 14 13 11 7 8 11 12 13 10 7 3 3 6
16 16 17 15 16 14 14 10 8 12 11 5 14 20 18 8 6 4 4 3 5 6 11 10 7 6 7 5 4 4 3 1 5 6 2 3 4 6 3 3 3 7 12 11 9 14 14 11 7 4 2 3 7 11
19 20 17 17 16 16 12 11 8 16 17 11 8 10 9 7 5 8 10 4 4 11 14 13 4 9 6 4 5 3 4 3 5 2 4 5 4 6 9 10 12 13 14 15 15 11 8 5 3 4 6 9 13 16
21 19 18 17 17 15 12 9 6 14 12 7 7 6 6 5 6 6 5 7 10 13 28 27 10 6 5 4 4 4 3 4 3 4 6 3 14 12 16 16 19 19 16 13 10 7 5 4 5 7 10 12 15 17
22 17 18 19 18 15 13 11 10 15 8 8 5 5 8 11 6 6 13 13 11 28 36 15 8 5 2 3 3 3 4 5 5 5 3 10 19 21 23 23 21 18 13 9 6 4 5 8 10 12 12 14 16 19
22 19 22 19 17 15 14 13 13 15 5 5 8 5 4 3 4 8 17 14 27 34 21 5 4 3 3 4 5 8 7 7 5 4 11 19 23 26 27 25 19 12 8 5 5 8 10 10 11 13 15 18 20 22
21 26 24 18 18 17 18 16 13 10 8 7 9 19 14 6 6 11 17 22 35 33 4 5 6 8 5 3 4 5 6 4 9 17 19 23 27 30 28 22 14 9 7 8 9 9 10 11 13 18 22 20 22 24
28 22 20 20 13 9 12 22 11 11 11 19 6 21 14 14 8 17 19 27 25 17 12 7 10 4 7 8 4 4 12 10 15 20 23 26 28 28 25 18 12 10 9 9 10 11 13 15 19 22 23 25 27 27
29 26 23 20 21 16 9 15 19 8 20 17 29 21 13 12 20 18 29 36 18 18 10 11 4 5 4 7 7 13 22 26 26 22 24 27 27 25 20 15 12 11 11 11 13 14 16 18 22 24 27 28 29 28
24 25 25 25 24 20 8 9 22 13 9 15 19 22 24 16 19 21 28 36 25 11 5 3 5 6 9 12 16 18 26 28 29 26 27 29 27 22 17 15 14 12 13 13 13 16 20 23 25 27 27 28 29 28
25 29 31 31 37 29 10 9 12 12 16 10 13 18 7 16 16 19 20 29 16 8 4 12 12 11 12 11 15 18 29 32 32 33 34 32 25 20 17 16 13 12 13 15 19 22 23 27 29 28 27 29 27 26
11 11 11 19 9 12 11 14 6 9 8 13 17 11 7 4 8 14 20 15 9 19 19 13 17 18 17 19 22 25 28 26 26 21 19 19 21 18 16 12 11 13 15 19 24 26 27 29 29 28 27 28 26 26
6 9 6 5 4 3 5 18 5 6 4 6 9 4 2 3 9 16 8 9 10 17 21 18 22 20 20 21 21 23 26 25 26 22 19 16 13 13 13 13 13 15 20 24 26 28 30 28 27 27 27 28 27 28
2 5 3 5 4 3 7 4 5 4 5 3 3 3 1 4 9 3 3 3 7 21 24 27 27 25 23 20 24 25 25 24 21 19 17 16 17 16 14 15 16 19 24 27 28 28 24 23 23 25 26 28 29 31
4 1 2 3 4 4 3 3 1 2 3 3 4 3 2 5 2 3 3 3 13 25 27 29 29 24 28 31 30 26 21 21 21 20 16 17 15 14 17 17 19 23 24 27 22 19 19 20 23 26 29 32 32 35
3 3 3 1 2 3 4 4 4 3 3 3 2 4 5 2 3 3 3 15 23 27 28 26 26 26 26 23 20 21 21 19 16 15 12 13 15 18 20 22 23 22 16 17 17 18 20 23 27 31 34 36 37 38
4 3 3 5 2 4 4 4 5 4 3 3 3 4 3 3 4 3 7 15 21 26 27 26 26 25 21 19 15 13 12 10 9 9 11 16 19 21 25 25 23 17 13 16 18 21 24 28 32 35 37 40 40 39
4 9 5 8 4 5 3 3 3 2 3 5 6 4 6 5 3 5 8 14 16 16 16 15 14 14 13 10 7 6 8 10 13 17 20 22 21 25 26 18 15 14 15 17 20 24 28 30 34 38 41 42 42 38
6 11 6 5 4 5 5 3 2 2 3 7 3 2 2 4 13 20 17 13 11 8 7 6 3 4 6 8 10 12 14 17 18 20 23 25 24 18 12 11 13 14 17 22 24 26 29 31 34 36 34 33 34 30
9 13 4 5 4 5 6 8 5 5 6 7 4 5 7 10 11 6 2 1 1 2 2 5 7 9 10 11 12 14 15 17 17 17 17 16 14 13 15 14 16 18 23 27 30 33 34 35 35 29 23 22 20 19
6 9 5 6 2 6 7 5 5 6 6 7 8 7 4 4 3 4 3 4 6 8 6 4 4 6 9 12 14 15 11 7 7 8 11 14 16 16 17 19 23 27 30 32 34 36 36 34 29 25 23 20 20 22
6 5 2 3 3 7 6 5 5 5 5 4 4 2 3 2 3 4 5 8 8 6 8 9 9 7 7 6 6 7 7 8 9 11 13 14 17 20 25 29 32 34 36 37 38 37 33 26 25 24 23 23 24 27
2 3 2 2 2 2 4 3 6 5 3 3 2 2 1 2 5 4 6 5 7 6 6 7 7 6 5 4 2 2 5 7 10 12 15 20 25 30 34 36 37 38 38 36 32 28 27 26 26 24 24 24 25 27